UAE1CR OMDB-YMML

Flight info

Callsign UAE1CR
Flight time 12h 57m
Altitude 31000
Route ANVIX L223 TARDI N629 GIDAN P570 EMURU M300 KADOL/N0490F330 M300 VASTU P895 BIKOK M641 KAT N640 EKASU/N0487F350 N640 ELATI DCT 0800S09530E 14S102E 17S106E/N0477F370 19S109E 21S112E DCT LM DCT 25S117E DCT LST DCT 29S123E 31S127E 33S132E/N0468F390 DCT KAMBI N640 AD V255 BENDO Y12 ARBEY
Aircraft B77L/H-SDE1E2E3FGHIJ2J3J4J5M1RWXY/LB1D1

Departure

Time 2026-04-25 02:08
Airport Dubai International Airport (OMDB)

Arrival

Time 2026-04-25 15:06
Airport Melbourne Airport (YMML)
Time Latitude Longitude Altitude Speed Heading
2026-04-25 01:43 25.24472 55.37134 47 ft 0 kts 212°
2026-04-25 01:55 25.24481 55.37139 47 ft 3 kts 212°
2026-04-25 01:55 25.24498 55.37151 47 ft 3 kts 212°
2026-04-25 01:55 25.24516 55.37163 47 ft 3 kts 212°
2026-04-25 01:56 25.24533 55.37175 47 ft 3 kts 212°
2026-04-25 01:56 25.24550 55.37187 47 ft 3 kts 212°
2026-04-25 01:56 25.24567 55.37198 47 ft 3 kts 212°
2026-04-25 01:56 25.24579 55.37206 47 ft 3 kts 212°
2026-04-25 01:57 25.24615 55.37230 47 ft 3 kts 198°
2026-04-25 01:57 25.24630 55.37233 47 ft 3 kts 165°
2026-04-25 01:57 25.24643 55.37227 47 ft 3 kts 130°
2026-04-25 01:58 25.24651 55.37215 47 ft 3 kts 121°
2026-04-25 01:58 25.24660 55.37198 47 ft 2 kts 121°
2026-04-25 01:58 25.24664 55.37191 47 ft 0 kts 121°
2026-04-25 02:01 25.24658 55.37201 47 ft 3 kts 121°
2026-04-25 02:01 25.24644 55.37228 47 ft 5 kts 121°
2026-04-25 02:01 25.24625 55.37262 47 ft 5 kts 121°
2026-04-25 02:02 25.24606 55.37295 47 ft 5 kts 121°
2026-04-25 02:02 25.24589 55.37326 47 ft 5 kts 121°
2026-04-25 02:02 25.24572 55.37357 47 ft 5 kts 121°
2026-04-25 02:02 25.24550 55.37397 47 ft 9 kts 121°
2026-04-25 02:03 25.24516 55.37458 47 ft 9 kts 121°
2026-04-25 02:03 25.24483 55.37518 47 ft 9 kts 121°
2026-04-25 02:03 25.24452 55.37575 47 ft 8 kts 121°
2026-04-25 02:03 25.24422 55.37631 47 ft 8 kts 121°
2026-04-25 02:04 25.24392 55.37683 47 ft 8 kts 122°
2026-04-25 02:04 25.24392 55.37738 47 ft 8 kts 58°
2026-04-25 02:04 25.24431 55.37774 47 ft 7 kts 35°
2026-04-25 02:04 25.24474 55.37807 47 ft 7 kts 34°
2026-04-25 02:05 25.24516 55.37838 47 ft 7 kts 34°
2026-04-25 02:05 25.24555 55.37868 47 ft 7 kts 34°
2026-04-25 02:05 25.24594 55.37897 47 ft 7 kts 33°
2026-04-25 02:05 25.24632 55.37925 47 ft 6 kts 33°
2026-04-25 02:06 25.24669 55.37951 47 ft 6 kts 33°
2026-04-25 02:06 25.24705 55.37978 47 ft 7 kts 33°
2026-04-25 02:06 25.24743 55.38005 47 ft 6 kts 32°
2026-04-25 02:06 25.24782 55.38026 47 ft 6 kts
2026-04-25 02:07 25.24818 55.38008 47 ft 6 kts 303°
2026-04-25 02:07 25.24853 55.37945 47 ft 24 kts 301°
2026-04-25 02:07 25.25062 55.37568 47 ft 91 kts 301°
2026-04-25 02:07 25.25511 55.36755 48 ft 152 kts 302°
2026-04-25 02:08 25.26151 55.35606 87 ft 197 kts 302°
2026-04-25 02:08 25.26861 55.34279 708 ft 199 kts 300°
2026-04-25 02:08 25.27540 55.32947 1399 ft 201 kts 301°
2026-04-25 02:08 25.28230 55.31715 1961 ft 195 kts 303°
2026-04-25 02:09 25.28970 55.30447 2520 ft 195 kts 303°
2026-04-25 02:09 25.29405 55.29047 2789 ft 206 kts 282°
2026-04-25 02:09 25.29091 55.27504 3355 ft 199 kts 254°
2026-04-25 02:09 25.28414 55.26185 3851 ft 200 kts 242°
2026-04-25 02:10 25.27730 55.24840 4274 ft 202 kts 243°
2026-04-25 02:10 25.27076 55.23467 4708 ft 204 kts 244°
2026-04-25 02:10 25.26426 55.22063 5158 ft 206 kts 244°
2026-04-25 02:10 25.25769 55.20607 5533 ft 214 kts 245°
2026-04-25 02:11 25.25105 55.19059 5741 ft 230 kts 246°
2026-04-25 02:11 25.24260 55.17534 6034 ft 243 kts 231°
2026-04-25 02:11 25.22813 55.16515 6426 ft 253 kts 204°
2026-04-25 02:11 25.21032 55.16225 6703 ft 269 kts 179°
2026-04-25 02:12 25.19268 55.16864 7222 ft 270 kts 152°
2026-04-25 02:12 25.17912 55.18187 7767 ft 273 kts 133°
2026-04-25 02:12 25.16760 55.19933 8066 ft 286 kts 120°
2026-04-25 02:12 25.15853 55.21925 8461 ft 295 kts 115°
2026-04-25 02:13 25.14966 55.23983 9022 ft 298 kts 114°
2026-04-25 02:13 25.14114 55.26064 9682 ft 301 kts 113°
2026-04-25 02:13 25.13249 55.28171 10223 ft 306 kts 116°
2026-04-25 02:13 25.12256 55.30298 10852 ft 308 kts 118°
2026-04-25 02:14 25.11243 55.32340 11520 ft 308 kts 120°
2026-04-25 02:14 25.10206 55.34426 12181 ft 311 kts 117°
2026-04-25 02:14 25.09272 55.36618 12846 ft 314 kts 114°
2026-04-25 02:14 25.08380 55.38854 13466 ft 318 kts 114°
2026-04-25 02:15 25.07509 55.41071 14087 ft 321 kts 114°
2026-04-25 02:15 25.06623 55.43367 14598 ft 329 kts 113°
2026-04-25 02:15 25.05711 55.45745 14918 ft 344 kts 114°
2026-04-25 02:15 25.04751 55.48235 15118 ft 362 kts 113°
2026-04-25 02:16 25.03733 55.50873 15332 ft 380 kts 112°
2026-04-25 02:16 25.02679 55.53597 15539 ft 397 kts 113°
2026-04-25 02:16 25.01468 55.56360 15885 ft 409 kts 118°
2026-04-25 02:16 25.00036 55.59163 16395 ft 416 kts 121°
2026-04-25 02:17 24.98513 55.61901 16966 ft 421 kts 122°
2026-04-25 02:17 24.97007 55.64614 17528 ft 426 kts 121°
2026-04-25 02:17 24.95467 55.67456 18107 ft 430 kts 121°
2026-04-25 02:17 24.93912 55.70290 18645 ft 435 kts 122°
2026-04-25 02:18 24.92219 55.73059 19200 ft 439 kts 126°
2026-04-25 02:18 24.90379 55.75769 19679 ft 444 kts 128°
2026-04-25 02:18 24.88476 55.78469 20220 ft 448 kts 127°
2026-04-25 02:18 24.86605 55.81245 20708 ft 452 kts 127°
2026-04-25 02:19 24.84748 55.84061 21256 ft 455 kts 126°
2026-04-25 02:19 24.82904 55.86870 21727 ft 459 kts 127°
2026-04-25 02:19 24.80972 55.89714 22211 ft 462 kts 127°
2026-04-25 02:19 24.79025 55.92520 22644 ft 466 kts 129°
2026-04-25 02:20 24.76928 55.95206 23116 ft 468 kts 134°
2026-04-25 02:20 24.74555 55.97731 23573 ft 470 kts 139°
2026-04-25 02:20 24.72100 56.00118 23995 ft 474 kts 139°
2026-04-25 02:20 24.69677 56.02567 24443 ft 476 kts 138°
2026-04-25 02:21 24.67263 56.05084 24860 ft 480 kts 137°
2026-04-25 02:21 24.64816 56.07588 25298 ft 482 kts 138°
2026-04-25 02:21 24.62354 56.10099 25731 ft 485 kts 138°
2026-04-25 02:21 24.59880 56.12628 26180 ft 486 kts 137°
2026-04-25 02:22 24.57424 56.15190 26543 ft 490 kts 135°
2026-04-25 02:22 24.55054 56.17919 26988 ft 492 kts 132°
2026-04-25 02:22 24.52771 56.20775 27350 ft 496 kts 130°
2026-04-25 02:22 24.50572 56.23670 27826 ft 496 kts 130°
2026-04-25 02:23 24.48370 56.26602 28153 ft 501 kts 130°
2026-04-25 02:23 24.46135 56.29512 28387 ft 506 kts 130°
2026-04-25 02:23 24.43835 56.32447 28662 ft 510 kts 131°
2026-04-25 02:23 24.41511 56.35391 28942 ft 513 kts 131°
2026-04-25 02:24 24.39162 56.38366 29376 ft 513 kts 131°
2026-04-25 02:24 24.36813 56.41343 29842 ft 512 kts 131°
2026-04-25 02:24 24.34510 56.44260 30243 ft 513 kts 131°
2026-04-25 02:24 24.32174 56.47218 30753 ft 511 kts 131°
2026-04-25 02:25 24.29847 56.50180 30870 ft 512 kts 130°
2026-04-25 02:25 24.25542 56.56395 30849 ft 515 kts 126°
2026-04-25 02:26 24.21681 56.62440 30845 ft 512 kts 126°
2026-04-25 02:26 24.17514 56.68796 30847 ft 512 kts 127°
2026-04-25 02:27 24.13327 56.75074 30849 ft 513 kts 127°
2026-04-25 02:27 24.09121 56.81378 30849 ft 511 kts 127°
2026-04-25 02:28 24.04935 56.87646 30848 ft 511 kts 127°
2026-04-25 02:28 24.00725 56.93942 30850 ft 511 kts 127°
2026-04-25 02:29 23.96527 57.00178 30850 ft 511 kts 127°
2026-04-25 02:29 23.92327 57.06409 30851 ft 511 kts 127°
2026-04-25 02:30 23.88117 57.12664 30853 ft 511 kts 127°
2026-04-25 02:30 23.83897 57.18957 30855 ft 512 kts 127°
2026-04-25 02:31 23.79761 57.25095 30858 ft 511 kts 127°
2026-04-25 02:31 23.75468 57.31457 30860 ft 511 kts 127°
2026-04-25 02:32 23.71246 57.37704 30859 ft 511 kts 128°
2026-04-25 02:32 23.66858 57.43775 30858 ft 511 kts 130°
2026-04-25 02:33 23.62435 57.49807 30860 ft 510 kts 129°
2026-04-25 02:33 23.57997 57.55903 30853 ft 511 kts 129°
2026-04-25 02:34 23.53588 57.61961 30874 ft 509 kts 129°
2026-04-25 02:34 23.49221 57.67956 30877 ft 508 kts 129°
2026-04-25 02:35 23.44806 57.73988 30884 ft 507 kts 129°
2026-04-25 02:35 23.40429 57.79985 30877 ft 508 kts 129°
2026-04-25 02:36 23.36009 57.86003 30889 ft 507 kts 129°
2026-04-25 02:36 23.31822 57.91693 30902 ft 506 kts 129°
2026-04-25 02:37 23.27417 57.97674 30903 ft 506 kts 129°
2026-04-25 02:37 23.23068 58.03716 30895 ft 507 kts 127°
2026-04-25 02:38 23.19097 58.10054 30911 ft 507 kts 123°
2026-04-25 02:38 23.15207 58.16425 30918 ft 506 kts 124°
2026-04-25 02:39 23.11218 58.22738 30916 ft 506 kts 125°
2026-04-25 02:39 23.07232 58.29028 30913 ft 506 kts 125°
2026-04-25 02:40 23.03004 58.35163 30913 ft 506 kts 133°
2026-04-25 02:40 22.97737 58.40163 30911 ft 505 kts 144°
2026-04-25 02:41 22.91858 58.44351 30914 ft 504 kts 150°
2026-04-25 02:41 22.85828 58.48217 30911 ft 504 kts 150°
2026-04-25 02:42 22.79839 58.52156 30915 ft 506 kts 149°
2026-04-25 02:42 22.73848 58.56113 30912 ft 505 kts 149°
2026-04-25 02:43 22.67814 58.60094 30916 ft 504 kts 149°
2026-04-25 02:43 22.61902 58.63996 30918 ft 501 kts 149°
2026-04-25 02:44 22.55953 58.67915 30917 ft 501 kts 149°
2026-04-25 02:44 22.50008 58.71834 30912 ft 501 kts 149°
2026-04-25 02:45 22.44053 58.75774 30897 ft 503 kts 149°
2026-04-25 02:45 22.39023 58.79082 30897 ft 504 kts 149°
2026-04-25 02:46 22.32070 58.83646 30891 ft 503 kts 149°
2026-04-25 02:46 22.27091 58.86976 30879 ft 503 kts 146°
2026-04-25 02:47 22.21741 58.91888 30885 ft 503 kts 135°
2026-04-25 02:47 22.16997 58.97446 30880 ft 504 kts 130°
2026-04-25 02:48 22.12573 59.03210 30878 ft 503 kts 129°
2026-04-25 02:48 22.08440 59.08597 30876 ft 503 kts 129°
2026-04-25 02:49 22.03962 59.14389 30879 ft 503 kts 129°
2026-04-25 02:49 21.99485 59.20182 30878 ft 503 kts 129°
2026-04-25 02:50 21.95016 59.25974 30877 ft 503 kts 129°
2026-04-25 02:50 21.90545 59.31742 30869 ft 503 kts 129°
2026-04-25 02:51 21.86050 59.37530 30870 ft 503 kts 129°
2026-04-25 02:51 21.81545 59.43323 30871 ft 503 kts 129°
2026-04-25 02:52 21.77067 59.49075 30867 ft 503 kts 129°
2026-04-25 02:52 21.72568 59.54874 30862 ft 504 kts 129°
2026-04-25 02:53 21.68080 59.60624 30863 ft 505 kts 129°
2026-04-25 02:53 21.63562 59.66400 30862 ft 505 kts 129°
2026-04-25 02:54 21.59017 59.72207 30862 ft 505 kts 130°
2026-04-25 02:54 21.54515 59.77956 30862 ft 506 kts 129°
2026-04-25 02:55 21.49989 59.83692 30862 ft 505 kts 130°
2026-04-25 02:55 21.45433 59.89465 30863 ft 506 kts 130°
2026-04-25 02:56 21.40900 59.95247 30863 ft 505 kts 129°
2026-04-25 02:56 21.36370 60.00982 30866 ft 506 kts 129°
2026-04-25 02:57 21.31816 60.06736 30866 ft 505 kts 129°
2026-04-25 02:57 21.27260 60.12487 30866 ft 505 kts 129°
2026-04-25 02:58 21.22710 60.18236 30867 ft 506 kts 129°
2026-04-25 02:58 21.18167 60.23978 30868 ft 505 kts 129°
2026-04-25 02:59 21.13721 60.29590 30868 ft 506 kts 129°
2026-04-25 02:59 21.09160 60.35344 30869 ft 506 kts 129°
2026-04-25 03:00 21.04613 60.41073 30867 ft 506 kts 129°
2026-04-25 03:00 21.00075 60.46807 30869 ft 506 kts 129°
2026-04-25 03:01 20.95540 60.52540 30869 ft 506 kts 129°
2026-04-25 03:01 20.90976 60.58288 30872 ft 507 kts 129°
2026-04-25 03:02 20.86400 60.64043 30871 ft 505 kts 129°
2026-04-25 03:02 20.81883 60.69721 30871 ft 505 kts 129°
2026-04-25 03:03 20.77340 60.75440 30873 ft 504 kts 129°
2026-04-25 03:03 20.72790 60.81136 30874 ft 504 kts 129°
2026-04-25 03:04 20.68244 60.86821 30874 ft 503 kts 129°
2026-04-25 03:04 20.63692 60.92508 30873 ft 504 kts 129°
2026-04-25 03:05 20.57559 61.01551 30876 ft 501 kts 121°
2026-04-25 03:05 20.53880 61.07871 30879 ft 497 kts 120°
2026-04-25 03:06 20.50196 61.14155 30881 ft 499 kts 120°
2026-04-25 03:06 20.46500 61.20359 30882 ft 499 kts 120°
2026-04-25 03:07 20.42768 61.26592 30884 ft 499 kts 120°
2026-04-25 03:07 20.39018 61.32892 30880 ft 499 kts 120°
2026-04-25 03:08 20.35315 61.39080 30885 ft 499 kts 120°
2026-04-25 03:08 20.31579 61.45306 30887 ft 500 kts 120°
2026-04-25 03:09 20.27820 61.51557 30886 ft 500 kts 120°
2026-04-25 03:09 20.24075 61.57776 30886 ft 500 kts 120°
2026-04-25 03:10 20.20327 61.63995 30886 ft 499 kts 120°
2026-04-25 03:10 20.16578 61.70208 30889 ft 500 kts 120°
2026-04-25 03:11 20.12934 61.76242 30889 ft 500 kts 120°
2026-04-25 03:11 20.09166 61.82473 30888 ft 499 kts 120°
2026-04-25 03:12 20.05450 61.88612 30888 ft 499 kts 120°
2026-04-25 03:12 20.01667 61.94856 30890 ft 500 kts 120°
2026-04-25 03:13 19.97900 62.01065 30890 ft 499 kts 120°
2026-04-25 03:13 19.94131 62.07272 30889 ft 499 kts 120°
2026-04-25 03:14 19.90373 62.13455 30890 ft 499 kts 120°
2026-04-25 03:14 19.86613 62.19634 30890 ft 499 kts 120°
2026-04-25 03:15 19.82841 62.25827 30890 ft 498 kts 120°
2026-04-25 03:15 19.79066 62.32018 30891 ft 498 kts 120°
2026-04-25 03:16 19.75302 62.38184 30891 ft 498 kts 120°
2026-04-25 03:16 19.71542 62.44339 30892 ft 497 kts 121°
2026-04-25 03:17 19.67784 62.50482 30891 ft 497 kts 121°
2026-04-25 03:17 19.64016 62.56637 30892 ft 497 kts 121°
2026-04-25 03:18 19.60239 62.62799 30890 ft 496 kts 121°
2026-04-25 03:18 19.56479 62.68927 30891 ft 497 kts 121°
2026-04-25 03:19 19.52707 62.75070 30890 ft 497 kts 121°
2026-04-25 03:19 19.48963 62.81161 30891 ft 497 kts 121°
2026-04-25 03:20 19.45168 62.87326 30891 ft 498 kts 121°
2026-04-25 03:20 19.41373 62.93488 30892 ft 497 kts 121°
2026-04-25 03:21 19.37592 62.99619 30890 ft 496 kts 121°
2026-04-25 03:21 19.33942 63.05533 30891 ft 497 kts 121°
2026-04-25 03:22 19.30148 63.11674 30894 ft 497 kts 121°
2026-04-25 03:22 19.26378 63.17769 30895 ft 497 kts 121°
2026-04-25 03:23 19.22573 63.23917 30894 ft 497 kts 121°
2026-04-25 03:23 19.18787 63.30026 30898 ft 497 kts 121°
2026-04-25 03:24 19.15003 63.36152 30903 ft 497 kts 121°
2026-04-25 03:24 19.11194 63.42286 30903 ft 498 kts 121°
2026-04-25 03:25 19.07420 63.48348 30906 ft 497 kts 121°
2026-04-25 03:25 19.03621 63.54447 30912 ft 497 kts 121°
2026-04-25 03:26 18.99827 63.60537 30917 ft 498 kts 121°
2026-04-25 03:26 18.96012 63.66648 30923 ft 498 kts 121°
2026-04-25 03:27 18.92189 63.72763 30922 ft 498 kts 121°
2026-04-25 03:27 18.88373 63.78859 30926 ft 498 kts 121°
2026-04-25 03:28 18.84557 63.84950 30928 ft 499 kts 121°
2026-04-25 03:28 18.80692 63.91118 31142 ft 505 kts 121°
2026-04-25 03:29 18.78766 63.94214 31603 ft 503 kts 121°
2026-04-25 03:29 18.76843 63.97301 32112 ft 502 kts 121°
2026-04-25 03:29 18.74927 64.00367 32476 ft 503 kts 121°
2026-04-25 03:29 18.72996 64.03453 32837 ft 504 kts 122°
2026-04-25 03:30 18.71068 64.06529 32939 ft 505 kts 122°
2026-04-25 03:30 18.69144 64.09597 32932 ft 503 kts 122°
2026-04-25 03:30 18.65269 64.15770 32930 ft 503 kts 122°
2026-04-25 03:31 18.61410 64.21909 32933 ft 503 kts 122°
2026-04-25 03:31 18.57534 64.28070 32933 ft 504 kts 122°
2026-04-25 03:32 18.54322 64.33171 32933 ft 504 kts 122°
2026-04-25 03:32 18.50604 64.39069 32934 ft 503 kts 122°
2026-04-25 03:33 18.46715 64.45234 32932 ft 503 kts 122°
2026-04-25 03:33 18.42169 64.52432 32933 ft 506 kts 122°
2026-04-25 03:34 18.38949 64.57525 32933 ft 506 kts 122°
2026-04-25 03:34 18.35022 64.63733 32932 ft 505 kts 122°
2026-04-25 03:35 18.31154 64.69840 32932 ft 504 kts 122°
2026-04-25 03:35 18.27258 64.75986 32930 ft 506 kts 122°
2026-04-25 03:36 18.23343 64.82156 32931 ft 507 kts 122°
2026-04-25 03:36 18.19424 64.88327 32930 ft 507 kts 122°
2026-04-25 03:37 18.15500 64.94500 32930 ft 506 kts 122°
2026-04-25 03:37 18.11577 65.00665 32930 ft 507 kts 122°
2026-04-25 03:38 18.07666 65.06804 32929 ft 507 kts 122°
2026-04-25 03:38 18.03765 65.12924 32930 ft 507 kts 122°
2026-04-25 03:39 17.99799 65.19139 32928 ft 507 kts 122°
2026-04-25 03:39 17.95884 65.25268 32929 ft 508 kts 122°
2026-04-25 03:40 17.91957 65.31412 32927 ft 508 kts 122°
2026-04-25 03:40 17.88009 65.37580 32928 ft 509 kts 122°
2026-04-25 03:41 17.84054 65.43756 32925 ft 510 kts 122°
2026-04-25 03:41 17.80081 65.49954 32926 ft 510 kts 122°
2026-04-25 03:42 17.76148 65.56107 32925 ft 508 kts 122°
2026-04-25 03:42 17.72198 65.62253 32926 ft 509 kts 123°
2026-04-25 03:43 17.68228 65.68420 32924 ft 510 kts 122°
2026-04-25 03:43 17.64238 65.74614 32924 ft 510 kts 123°
2026-04-25 03:44 17.60417 65.80573 32924 ft 510 kts 122°
2026-04-25 03:44 17.56525 65.86894 32924 ft 510 kts 122°
2026-04-25 03:45 17.52709 65.93098 32927 ft 514 kts 122°
2026-04-25 03:45 17.48824 65.99386 32925 ft 514 kts 122°
2026-04-25 03:46 17.44948 66.05649 32926 ft 509 kts 121°
2026-04-25 03:46 17.41098 66.11885 32925 ft 511 kts 122°
2026-04-25 03:47 17.37232 66.18153 32927 ft 514 kts 122°
2026-04-25 03:47 17.33351 66.24424 32925 ft 514 kts 122°
2026-04-25 03:48 17.29452 66.30712 32926 ft 513 kts 122°
2026-04-25 03:48 17.25578 66.36954 32925 ft 512 kts 122°
2026-04-25 03:49 17.21678 66.43230 32925 ft 513 kts 122°
2026-04-25 03:49 17.17793 66.49477 32924 ft 512 kts 122°
2026-04-25 03:50 17.13903 66.55726 32924 ft 511 kts 122°
2026-04-25 03:50 17.10028 66.61944 32923 ft 512 kts 123°
2026-04-25 03:51 17.06160 66.68145 32923 ft 512 kts 122°
2026-04-25 03:51 17.02294 66.74339 32921 ft 511 kts 123°
2026-04-25 03:52 16.98392 66.80584 32922 ft 511 kts 124°
2026-04-25 03:52 16.94511 66.86789 32919 ft 508 kts 124°
2026-04-25 03:53 16.90643 66.92970 32920 ft 508 kts 123°
2026-04-25 03:53 16.86769 66.99153 32921 ft 511 kts 124°
2026-04-25 03:54 16.82878 67.05358 32916 ft 509 kts 124°
2026-04-25 03:54 16.78998 67.11541 32918 ft 510 kts 124°
2026-04-25 03:55 16.75138 67.17683 32918 ft 505 kts 124°
2026-04-25 03:55 16.71272 67.23835 32921 ft 508 kts 124°
2026-04-25 03:56 16.67400 67.29986 32923 ft 503 kts 125°
2026-04-25 03:56 16.63577 67.36058 32915 ft 502 kts 125°
2026-04-25 03:57 16.59743 67.42141 32915 ft 504 kts 124°
2026-04-25 03:57 16.55850 67.48313 32917 ft 509 kts 124°
2026-04-25 03:58 16.51991 67.54425 32917 ft 504 kts 124°
2026-04-25 03:58 16.48293 67.60277 32910 ft 496 kts 124°
2026-04-25 03:59 16.44512 67.66257 32910 ft 492 kts 124°
2026-04-25 03:59 16.40742 67.72234 32911 ft 498 kts 124°
2026-04-25 04:00 16.36943 67.78227 32909 ft 496 kts 124°
2026-04-25 04:00 16.33150 67.84201 32910 ft 493 kts 124°
2026-04-25 04:01 16.29377 67.90141 32911 ft 493 kts 124°
2026-04-25 04:01 16.25585 67.96122 32910 ft 493 kts 124°
2026-04-25 04:02 16.21831 68.02085 32910 ft 493 kts 124°
2026-04-25 04:02 16.18084 68.08028 32910 ft 493 kts 124°
2026-04-25 04:03 16.14297 68.14031 32910 ft 493 kts 124°
2026-04-25 04:03 16.10545 68.19972 32910 ft 493 kts 124°
2026-04-25 04:04 16.06775 68.25948 32911 ft 493 kts 124°
2026-04-25 04:04 16.03033 68.31902 32910 ft 493 kts 124°
2026-04-25 04:05 15.99270 68.37866 32911 ft 493 kts 124°
2026-04-25 04:05 15.95517 68.43805 32910 ft 492 kts 125°
2026-04-25 04:06 15.91754 68.49752 32909 ft 487 kts 126°
2026-04-25 04:06 15.88031 68.55630 32909 ft 491 kts 125°
2026-04-25 04:07 15.84268 68.61567 32909 ft 493 kts 125°
2026-04-25 04:07 15.80512 68.67490 32910 ft 488 kts 126°
2026-04-25 04:08 15.76794 68.73344 32905 ft 487 kts 126°
2026-04-25 04:08 15.73049 68.79239 32907 ft 489 kts 126°
2026-04-25 04:09 15.69301 68.85134 32908 ft 489 kts 126°
2026-04-25 04:09 15.65559 68.91011 32907 ft 488 kts 126°
2026-04-25 04:10 15.61794 68.96924 32900 ft 492 kts 127°
2026-04-25 04:10 15.57999 69.02881 32889 ft 496 kts 126°
2026-04-25 04:11 15.52381 69.11687 32912 ft 485 kts 127°
2026-04-25 04:12 15.48649 69.17531 32904 ft 489 kts 127°
2026-04-25 04:12 15.44873 69.23435 32904 ft 495 kts 127°
2026-04-25 04:13 15.41064 69.29386 32904 ft 496 kts 127°
2026-04-25 04:13 15.37251 69.35348 32906 ft 493 kts 127°
2026-04-25 04:14 15.33466 69.41259 32897 ft 494 kts 128°
2026-04-25 04:14 15.29658 69.47204 32908 ft 496 kts 128°
2026-04-25 04:15 15.25871 69.53125 32898 ft 493 kts 128°
2026-04-25 04:15 15.22057 69.59059 32907 ft 492 kts 128°
2026-04-25 04:16 15.18911 69.63949 32904 ft 491 kts 129°
2026-04-25 04:16 15.14569 69.70694 32900 ft 492 kts 129°
2026-04-25 04:17 15.10778 69.76589 32897 ft 492 kts 129°
2026-04-25 04:17 15.07014 69.82520 32911 ft 490 kts 129°
2026-04-25 04:18 15.03285 69.88386 32893 ft 492 kts 129°
2026-04-25 04:18 14.99512 69.94308 32907 ft 492 kts 129°
2026-04-25 04:19 14.95757 70.00207 32901 ft 490 kts 129°
2026-04-25 04:19 14.92005 70.06100 32898 ft 492 kts 129°
2026-04-25 04:20 14.88239 70.12032 32894 ft 499 kts 129°
2026-04-25 04:20 14.85049 70.17034 32875 ft 503 kts 129°
2026-04-25 04:21 14.81241 70.23019 32899 ft 492 kts 129°
2026-04-25 04:21 14.77487 70.28894 32896 ft 492 kts 129°
2026-04-25 04:22 14.73695 70.34842 32887 ft 499 kts 130°
2026-04-25 04:22 14.69842 70.40852 32894 ft 502 kts 130°
2026-04-25 04:23 14.66013 70.46842 32915 ft 499 kts 130°
2026-04-25 04:23 14.62195 70.52797 32873 ft 498 kts 130°
2026-04-25 04:24 14.58365 70.58779 32909 ft 500 kts 130°
2026-04-25 04:24 14.54505 70.64784 32897 ft 503 kts 130°
2026-04-25 04:25 14.50670 70.70803 32903 ft 501 kts 130°
2026-04-25 04:25 14.46819 70.76792 32909 ft 501 kts 130°
2026-04-25 04:26 14.42978 70.82762 32910 ft 499 kts 130°
2026-04-25 04:26 14.39135 70.88730 32902 ft 500 kts 130°
2026-04-25 04:27 14.35378 70.94566 32914 ft 499 kts 130°
2026-04-25 04:27 14.31605 71.00513 32901 ft 500 kts 130°
2026-04-25 04:28 14.27806 71.06521 32900 ft 499 kts 130°
2026-04-25 04:28 14.24025 71.12509 32908 ft 499 kts 130°
2026-04-25 04:29 14.20222 71.18513 32900 ft 500 kts 130°
2026-04-25 04:29 14.16420 71.24509 32909 ft 501 kts 130°
2026-04-25 04:30 14.12624 71.30519 32903 ft 497 kts 130°
2026-04-25 04:30 14.08862 71.36467 32914 ft 497 kts 130°
2026-04-25 04:31 14.05062 71.42462 32908 ft 496 kts 130°
2026-04-25 04:31 14.01316 71.48373 32905 ft 493 kts 130°
2026-04-25 04:32 13.97563 71.54278 32905 ft 493 kts 130°
2026-04-25 04:32 13.93807 71.60185 32897 ft 493 kts 130°
2026-04-25 04:33 13.90020 71.66138 32906 ft 498 kts 130°
2026-04-25 04:33 13.86228 71.72099 32895 ft 496 kts 130°
2026-04-25 04:34 13.82498 71.77971 32899 ft 492 kts 130°
2026-04-25 04:34 13.78744 71.83861 32901 ft 493 kts 130°
2026-04-25 04:35 13.74977 71.89758 32898 ft 494 kts 130°
2026-04-25 04:35 13.71213 71.95656 32896 ft 493 kts 130°
2026-04-25 04:36 13.67390 72.01482 32908 ft 488 kts 133°
2026-04-25 04:36 13.63206 72.06935 32894 ft 485 kts 136°
2026-04-25 04:37 13.58857 72.12243 32897 ft 486 kts 136°
2026-04-25 04:37 13.54534 72.17608 32899 ft 488 kts 136°
2026-04-25 04:38 13.50369 72.22827 32888 ft 485 kts 136°
2026-04-25 04:38 13.46104 72.28197 32897 ft 485 kts 135°
2026-04-25 04:39 13.41869 72.33567 32896 ft 484 kts 135°
2026-04-25 04:39 13.37608 72.38948 32892 ft 485 kts 136°
2026-04-25 04:40 13.33346 72.44324 32889 ft 485 kts 135°
2026-04-25 04:40 13.29078 72.49706 32884 ft 486 kts 135°
2026-04-25 04:41 13.24828 72.55058 32887 ft 486 kts 135°
2026-04-25 04:41 13.20534 72.60469 32886 ft 486 kts 135°
2026-04-25 04:42 13.16288 72.65810 32894 ft 486 kts 135°
2026-04-25 04:42 13.12024 72.71169 32888 ft 483 kts 135°
2026-04-25 04:43 13.07777 72.76506 32888 ft 484 kts 135°
2026-04-25 04:43 13.03486 72.81898 32888 ft 486 kts 135°
2026-04-25 04:44 12.99237 72.87230 32890 ft 484 kts 135°
2026-04-25 04:44 12.94970 72.92579 32887 ft 481 kts 135°
2026-04-25 04:45 12.90740 72.97883 32891 ft 481 kts 135°
2026-04-25 04:45 12.86515 73.03180 32890 ft 482 kts 135°
2026-04-25 04:46 12.82250 73.08523 32891 ft 483 kts 135°
2026-04-25 04:46 12.77994 73.13847 32888 ft 481 kts 135°
2026-04-25 04:47 12.73752 73.19150 32889 ft 481 kts 135°
2026-04-25 04:47 12.69498 73.24467 32893 ft 482 kts 135°
2026-04-25 04:48 12.65246 73.29779 32887 ft 482 kts 135°
2026-04-25 04:48 12.61001 73.35079 32888 ft 482 kts 135°
2026-04-25 04:49 12.56771 73.40357 32887 ft 483 kts 135°
2026-04-25 04:49 12.52513 73.45667 32888 ft 483 kts 135°
2026-04-25 04:50 12.48243 73.50991 32887 ft 482 kts 135°
2026-04-25 04:50 12.43989 73.56289 32888 ft 483 kts 135°
2026-04-25 04:51 12.39720 73.61604 32888 ft 484 kts 134°
2026-04-25 04:51 12.35438 73.66932 32888 ft 484 kts 134°
2026-04-25 04:52 12.31272 73.72112 32888 ft 485 kts 135°
2026-04-25 04:52 12.26987 73.77437 32888 ft 484 kts 134°
2026-04-25 04:53 12.22712 73.82748 32888 ft 484 kts 134°
2026-04-25 04:53 12.18427 73.88068 32889 ft 485 kts 134°
2026-04-25 04:54 12.14148 73.93377 32889 ft 485 kts 134°
2026-04-25 04:54 12.09841 73.98717 32890 ft 484 kts 134°
2026-04-25 04:55 12.05578 74.04000 32889 ft 484 kts 134°
2026-04-25 04:55 12.01275 74.09332 32890 ft 484 kts 134°
2026-04-25 04:56 11.97020 74.14599 32889 ft 485 kts 134°
2026-04-25 04:56 11.92726 74.19912 32890 ft 484 kts 134°
2026-04-25 04:57 11.88450 74.25199 32889 ft 483 kts 134°
2026-04-25 04:57 11.84163 74.30499 32890 ft 483 kts 134°
2026-04-25 04:58 11.79878 74.35792 32890 ft 484 kts 134°
2026-04-25 04:58 11.75588 74.41088 32890 ft 484 kts 134°
2026-04-25 04:59 11.71311 74.46366 32891 ft 484 kts 134°
2026-04-25 04:59 11.67009 74.51672 32890 ft 484 kts 134°
2026-04-25 05:00 11.62718 74.56963 32892 ft 484 kts 134°
2026-04-25 05:00 11.58431 74.62245 32890 ft 483 kts 134°
2026-04-25 05:01 11.54156 74.67517 32892 ft 483 kts 134°
2026-04-25 05:01 11.49851 74.72820 32891 ft 484 kts 134°
2026-04-25 05:02 11.45577 74.78074 32892 ft 484 kts 134°
2026-04-25 05:02 11.41280 74.83354 32891 ft 483 kts 134°
2026-04-25 05:03 11.37000 74.88609 32891 ft 484 kts 134°
2026-04-25 05:03 11.32825 74.93737 32892 ft 484 kts 134°
2026-04-25 05:04 11.28567 74.98953 32892 ft 481 kts 134°
2026-04-25 05:04 11.24289 75.04194 32891 ft 481 kts 133°
2026-04-25 05:05 11.20031 75.09409 32890 ft 479 kts 133°
2026-04-25 05:05 11.15777 75.14617 32890 ft 480 kts 134°
2026-04-25 05:06 11.11475 75.19891 32890 ft 485 kts 133°
2026-04-25 05:06 11.07169 75.25175 32892 ft 480 kts 133°
2026-04-25 05:07 11.02928 75.30368 32893 ft 479 kts 133°
2026-04-25 05:07 10.98671 75.35578 32893 ft 478 kts 133°
2026-04-25 05:08 10.94407 75.40790 32893 ft 479 kts 133°
2026-04-25 05:08 10.90830 75.45162 32893 ft 480 kts 133°
2026-04-25 05:09 10.86559 75.50378 32897 ft 481 kts 133°
2026-04-25 05:09 10.82288 75.55593 32897 ft 482 kts 133°
2026-04-25 05:10 10.78022 75.60799 32896 ft 480 kts 133°
2026-04-25 05:10 10.73754 75.66005 32896 ft 479 kts 133°
2026-04-25 05:11 10.69456 75.71244 32899 ft 480 kts 133°
2026-04-25 05:11 10.65178 75.76457 32905 ft 481 kts 133°
2026-04-25 05:12 10.58762 75.84270 32900 ft 482 kts 133°
2026-04-25 05:12 10.54446 75.89523 32900 ft 483 kts 132°
2026-04-25 05:13 10.50163 75.94732 32919 ft 481 kts 131°
2026-04-25 05:13 10.45868 75.99956 32925 ft 481 kts 131°
2026-04-25 05:14 10.41569 76.05180 32925 ft 483 kts 131°
2026-04-25 05:15 10.35341 76.12747 32923 ft 482 kts 131°
2026-04-25 05:15 10.31051 76.17965 32922 ft 481 kts 132°
2026-04-25 05:16 10.26749 76.23182 32922 ft 481 kts 132°
2026-04-25 05:16 10.22477 76.28360 32923 ft 481 kts 132°
2026-04-25 05:17 10.18153 76.33600 32924 ft 481 kts 131°
2026-04-25 05:17 10.13871 76.38787 32924 ft 480 kts 132°
2026-04-25 05:18 10.09538 76.43986 32953 ft 485 kts 132°
2026-04-25 05:18 10.05220 76.49168 32931 ft 480 kts 132°
2026-04-25 05:19 10.00919 76.54330 32913 ft 483 kts 132°
2026-04-25 05:19 9.96505 76.59626 32944 ft 493 kts 132°
2026-04-25 05:20 9.92073 76.64946 32950 ft 491 kts 132°
2026-04-25 05:20 9.87713 76.70191 32958 ft 487 kts 132°
2026-04-25 05:21 9.83316 76.75470 32959 ft 487 kts 132°
2026-04-25 05:21 9.78929 76.80731 32961 ft 498 kts 132°
2026-04-25 05:22 9.74413 76.86143 32968 ft 503 kts 132°
2026-04-25 05:22 9.69910 76.91538 32958 ft 504 kts 132°
2026-04-25 05:23 9.65407 76.96929 32958 ft 496 kts 128°
2026-04-25 05:23 9.60990 77.02217 32964 ft 488 kts 132°
2026-04-25 05:24 9.56593 77.07477 32963 ft 491 kts 132°
2026-04-25 05:24 9.52198 77.12733 32950 ft 483 kts 131°
2026-04-25 05:25 9.47872 77.17906 32945 ft 482 kts 132°
2026-04-25 05:25 9.43736 77.22847 32930 ft 483 kts 132°
2026-04-25 05:26 9.39405 77.28019 32913 ft 487 kts 128°
2026-04-25 05:26 9.34983 77.33308 32935 ft 498 kts 128°
2026-04-25 05:27 9.30503 77.38653 32925 ft 492 kts 131°
2026-04-25 05:27 9.26103 77.43899 32910 ft 485 kts 132°
2026-04-25 05:28 9.21742 77.49097 32914 ft 484 kts 132°
2026-04-25 05:28 9.17379 77.54298 32915 ft 485 kts 132°
2026-04-25 05:29 9.13011 77.59500 32908 ft 485 kts 131°
2026-04-25 05:29 9.08649 77.64695 32905 ft 485 kts 131°
2026-04-25 05:30 9.04267 77.69912 32905 ft 485 kts 131°
2026-04-25 05:30 8.99909 77.75100 32906 ft 485 kts 132°
2026-04-25 05:31 8.95564 77.80270 32904 ft 485 kts 131°
2026-04-25 05:31 8.91202 77.85475 32902 ft 486 kts 131°
2026-04-25 05:32 8.86794 77.90724 32900 ft 486 kts 131°
2026-04-25 05:32 8.82414 77.95935 32902 ft 486 kts 131°
2026-04-25 05:33 8.78040 78.01135 32901 ft 486 kts 131°
2026-04-25 05:33 8.73690 78.06305 32901 ft 486 kts 132°
2026-04-25 05:34 8.69280 78.11545 32901 ft 486 kts 132°
2026-04-25 05:34 8.64902 78.16743 32900 ft 486 kts 131°
2026-04-25 05:35 8.60541 78.21920 32901 ft 486 kts 132°
2026-04-25 05:35 8.56158 78.27122 32902 ft 486 kts 132°
2026-04-25 05:36 8.51773 78.32323 32904 ft 486 kts 132°
2026-04-25 05:36 8.47410 78.37503 32904 ft 486 kts 132°
2026-04-25 05:37 8.43121 78.42588 32905 ft 486 kts 132°
2026-04-25 05:37 8.38741 78.47776 32906 ft 485 kts 132°
2026-04-25 05:38 8.34364 78.52958 32907 ft 485 kts 132°
2026-04-25 05:38 8.29986 78.58139 32907 ft 484 kts 132°
2026-04-25 05:39 8.25591 78.63261 32907 ft 484 kts 133°
2026-04-25 05:39 8.21053 78.68303 32909 ft 484 kts 134°
2026-04-25 05:40 8.16521 78.73362 32908 ft 484 kts 133°
2026-04-25 05:40 8.12047 78.78378 32910 ft 484 kts 133°
2026-04-25 05:41 8.07531 78.83446 32909 ft 484 kts 133°
2026-04-25 05:41 8.03023 78.88511 32910 ft 483 kts 133°
2026-04-25 05:42 7.98537 78.93552 32909 ft 483 kts 133°
2026-04-25 05:42 7.94036 78.98603 32910 ft 484 kts 133°
2026-04-25 05:43 7.89568 79.03620 32909 ft 483 kts 133°
2026-04-25 05:43 7.85091 79.08641 32910 ft 483 kts 133°
2026-04-25 05:44 7.80588 79.13685 32910 ft 483 kts 133°
2026-04-25 05:44 7.76085 79.18729 32910 ft 483 kts 133°
2026-04-25 05:45 7.71584 79.23767 32902 ft 483 kts 133°
2026-04-25 05:45 7.67109 79.28847 32900 ft 484 kts 133°
2026-04-25 05:46 7.62670 79.33909 32900 ft 484 kts 133°
2026-04-25 05:46 7.58205 79.38996 32902 ft 483 kts 133°
2026-04-25 05:47 7.53754 79.44063 32895 ft 483 kts 133°
2026-04-25 05:47 7.49288 79.49147 32880 ft 484 kts 133°
2026-04-25 05:48 7.45000 79.54034 32882 ft 484 kts 133°
2026-04-25 05:48 7.40517 79.59140 32885 ft 484 kts 133°
2026-04-25 05:49 7.36046 79.64230 32879 ft 484 kts 133°
2026-04-25 05:49 7.33603 79.67011 32877 ft 484 kts 133°
2026-04-25 05:50 7.29131 79.72096 32872 ft 484 kts 133°
2026-04-25 05:50 7.25413 79.76320 32872 ft 484 kts 133°
2026-04-25 05:51 7.20205 79.82236 32873 ft 484 kts 133°
2026-04-25 05:51 7.15741 79.87307 32870 ft 484 kts 133°
2026-04-25 05:52 7.11288 79.92380 32872 ft 484 kts 133°
2026-04-25 05:52 7.07572 79.96613 32871 ft 484 kts 133°
2026-04-25 05:53 7.03111 80.01695 32871 ft 484 kts 133°
2026-04-25 05:53 6.98663 80.06761 32873 ft 483 kts 132°
2026-04-25 05:54 6.94214 80.11826 32874 ft 483 kts 133°
2026-04-25 05:54 6.87540 80.19436 32882 ft 483 kts 132°
2026-04-25 05:55 6.83081 80.24514 32887 ft 483 kts 132°
2026-04-25 05:55 6.78634 80.29575 32890 ft 483 kts 132°
2026-04-25 05:56 6.74169 80.34654 32885 ft 483 kts 132°
2026-04-25 05:56 6.69718 80.39717 32887 ft 483 kts 132°
2026-04-25 05:57 6.65299 80.44748 32914 ft 484 kts 132°
2026-04-25 05:57 6.60837 80.49819 32915 ft 484 kts 132°
2026-04-25 05:58 6.56340 80.54927 32915 ft 484 kts 132°
2026-04-25 05:58 6.51881 80.59991 32913 ft 484 kts 132°
2026-04-25 05:59 6.47535 80.64928 32915 ft 484 kts 132°
2026-04-25 05:59 6.43138 80.70070 32917 ft 485 kts 131°
2026-04-25 06:00 6.38760 80.75214 32916 ft 485 kts 131°
2026-04-25 06:00 6.34391 80.80333 32919 ft 484 kts 131°
2026-04-25 06:01 6.30016 80.85466 32912 ft 485 kts 131°
2026-04-25 06:01 6.25614 80.90622 32904 ft 485 kts 131°
2026-04-25 06:02 6.21218 80.95766 32904 ft 485 kts 131°
2026-04-25 06:02 6.16840 81.00886 32905 ft 485 kts 131°
2026-04-25 06:03 6.12424 81.06050 32904 ft 485 kts 131°
2026-04-25 06:03 6.08012 81.11173 32905 ft 485 kts 131°
2026-04-25 06:04 6.03562 81.16306 32904 ft 485 kts 131°
2026-04-25 06:04 5.99155 81.21395 32904 ft 485 kts 131°
2026-04-25 06:05 5.94719 81.26520 32903 ft 485 kts 131°
2026-04-25 06:05 5.90270 81.31659 32903 ft 485 kts 131°
2026-04-25 06:06 5.85878 81.36738 32904 ft 486 kts 131°
2026-04-25 06:06 5.81444 81.41867 32903 ft 486 kts 131°
2026-04-25 06:07 5.77006 81.46993 32904 ft 486 kts 131°
2026-04-25 06:07 5.72574 81.52107 32904 ft 486 kts 131°
2026-04-25 06:08 5.68137 81.57226 32903 ft 486 kts 131°
2026-04-25 06:08 5.63697 81.62347 32904 ft 487 kts 131°
2026-04-25 06:09 5.59256 81.67496 32899 ft 488 kts 131°
2026-04-25 06:09 5.54810 81.72661 32901 ft 488 kts 131°
2026-04-25 06:10 5.50496 81.77673 32901 ft 488 kts 131°
2026-04-25 06:10 5.46055 81.82830 32900 ft 488 kts 131°
2026-04-25 06:11 5.41605 81.87998 32900 ft 489 kts 131°
2026-04-25 06:11 5.37165 81.93159 32899 ft 489 kts 131°
2026-04-25 06:12 5.32715 81.98331 32900 ft 489 kts 131°
2026-04-25 06:12 5.28277 82.03485 32899 ft 489 kts 131°
2026-04-25 06:13 5.23829 82.08649 32900 ft 489 kts 131°
2026-04-25 06:14 5.17163 82.16384 32900 ft 489 kts 131°
2026-04-25 06:14 5.12729 82.21528 32900 ft 489 kts 131°
2026-04-25 06:15 5.08287 82.26679 32900 ft 489 kts 131°
2026-04-25 06:15 5.03833 82.31844 32900 ft 490 kts 131°
2026-04-25 06:16 4.99376 82.37011 32899 ft 490 kts 131°
2026-04-25 06:16 4.94890 82.42209 32900 ft 489 kts 131°
2026-04-25 06:17 4.90463 82.47339 32899 ft 490 kts 131°
2026-04-25 06:17 4.86008 82.52500 32900 ft 491 kts 130°
2026-04-25 06:18 4.81521 82.57697 32899 ft 492 kts 131°
2026-04-25 06:18 4.77051 82.62872 32899 ft 492 kts 131°
2026-04-25 06:19 4.72578 82.68050 32900 ft 492 kts 131°
2026-04-25 06:19 4.68087 82.73249 32899 ft 492 kts 131°
2026-04-25 06:20 4.63593 82.78450 32900 ft 493 kts 130°
2026-04-25 06:20 4.59119 82.83626 32899 ft 493 kts 130°
2026-04-25 06:21 4.54634 82.88814 32899 ft 493 kts 130°
2026-04-25 06:21 4.50285 82.93843 32899 ft 493 kts 130°
2026-04-25 06:22 4.45816 82.99011 32899 ft 493 kts 130°
2026-04-25 06:22 4.41322 83.04205 32899 ft 494 kts 130°
2026-04-25 06:23 4.36792 83.09441 32898 ft 494 kts 130°
2026-04-25 06:23 4.32324 83.14603 32899 ft 493 kts 130°
2026-04-25 06:24 4.27800 83.19831 32899 ft 494 kts 130°
2026-04-25 06:24 4.23331 83.24993 32898 ft 493 kts 130°
2026-04-25 06:25 4.18824 83.30198 32897 ft 493 kts 130°
2026-04-25 06:25 4.14333 83.35383 32897 ft 493 kts 131°
2026-04-25 06:26 4.09831 83.40580 32899 ft 493 kts 130°
2026-04-25 06:26 4.05339 83.45765 32895 ft 493 kts 130°
2026-04-25 06:27 4.00840 83.50957 32893 ft 492 kts 130°
2026-04-25 06:27 3.96352 83.56136 32893 ft 493 kts 130°
2026-04-25 06:28 3.91833 83.61349 32893 ft 493 kts 130°
2026-04-25 06:28 3.87367 83.66501 32894 ft 493 kts 130°
2026-04-25 06:29 3.82866 83.71691 32891 ft 492 kts 130°
2026-04-25 06:29 3.78393 83.76848 32890 ft 492 kts 130°
2026-04-25 06:30 3.73909 83.82018 32892 ft 492 kts 130°
2026-04-25 06:30 3.69436 83.87178 32891 ft 492 kts 130°
2026-04-25 06:31 3.64945 83.92353 32890 ft 491 kts 130°
2026-04-25 06:31 3.60475 83.97503 32890 ft 492 kts 130°
2026-04-25 06:32 3.55995 84.02664 32947 ft 494 kts 130°
2026-04-25 06:32 3.53851 84.05132 33217 ft 494 kts 130°
2026-04-25 06:32 3.51604 84.07711 33694 ft 491 kts 131°
2026-04-25 06:32 3.49335 84.10237 34113 ft 490 kts 131°
2026-04-25 06:33 3.47053 84.12745 34488 ft 489 kts 131°
2026-04-25 06:33 3.44766 84.15263 34827 ft 489 kts 131°
2026-04-25 06:33 3.42472 84.17795 34910 ft 490 kts 131°
2026-04-25 06:34 3.37874 84.22882 34890 ft 489 kts 131°
2026-04-25 06:34 3.33321 84.27924 34889 ft 488 kts 131°
2026-04-25 06:35 3.28773 84.32966 34890 ft 488 kts 131°
2026-04-25 06:35 3.24259 84.37973 34890 ft 488 kts 131°
2026-04-25 06:36 3.19701 84.43026 34890 ft 488 kts 131°
2026-04-25 06:36 3.15143 84.48078 34890 ft 488 kts 131°
2026-04-25 06:37 3.10603 84.53110 34889 ft 489 kts 131°
2026-04-25 06:37 3.06040 84.58165 34890 ft 488 kts 131°
2026-04-25 06:38 3.02227 84.62390 34890 ft 488 kts 131°
2026-04-25 06:38 2.97692 84.67412 34890 ft 489 kts 131°
2026-04-25 06:39 2.93131 84.72465 34890 ft 489 kts 131°
2026-04-25 06:39 2.88575 84.77510 34890 ft 489 kts 131°
2026-04-25 06:40 2.84017 84.82556 34889 ft 489 kts 131°
2026-04-25 06:40 2.79415 84.87651 34890 ft 489 kts 131°
2026-04-25 06:41 2.74893 84.92657 34890 ft 489 kts 131°
2026-04-25 06:41 2.70293 84.97749 34889 ft 489 kts 131°
2026-04-25 06:42 2.65758 85.02767 34890 ft 489 kts 131°
2026-04-25 06:42 2.61201 85.07809 34889 ft 489 kts 131°
2026-04-25 06:43 2.56645 85.12851 34890 ft 488 kts 131°
2026-04-25 06:43 2.52227 85.17739 34889 ft 488 kts 131°
2026-04-25 06:44 2.47666 85.22784 34890 ft 489 kts 131°
2026-04-25 06:44 2.43107 85.27827 34890 ft 488 kts 131°
2026-04-25 06:45 2.38559 85.32857 34889 ft 487 kts 131°
2026-04-25 06:45 2.34005 85.37893 34890 ft 487 kts 131°
2026-04-25 06:46 2.29503 85.42871 34890 ft 486 kts 131°
2026-04-25 06:46 2.24962 85.47892 34890 ft 487 kts 131°
2026-04-25 06:47 2.20420 85.52913 34890 ft 488 kts 131°
2026-04-25 06:47 2.15872 85.57940 34889 ft 487 kts 131°
2026-04-25 06:48 2.11329 85.62962 34890 ft 487 kts 131°
2026-04-25 06:48 2.06781 85.67988 34889 ft 488 kts 131°
2026-04-25 06:49 2.02203 85.73047 34890 ft 489 kts 131°
2026-04-25 06:49 1.97654 85.78074 34890 ft 487 kts 131°
2026-04-25 06:50 1.93099 85.83107 34890 ft 487 kts 131°
2026-04-25 06:50 1.88567 85.88115 34890 ft 486 kts 131°
2026-04-25 06:51 1.84031 85.93126 34889 ft 485 kts 131°
2026-04-25 06:51 1.79502 85.98130 34890 ft 487 kts 131°
2026-04-25 06:52 1.74952 86.03157 34889 ft 487 kts 131°
2026-04-25 06:52 1.70417 86.08165 34888 ft 485 kts 131°
2026-04-25 06:53 1.65912 86.13140 34889 ft 485 kts 131°
2026-04-25 06:53 1.61348 86.18173 34888 ft 487 kts 132°
2026-04-25 06:54 1.56701 86.23042 34889 ft 487 kts 134°
2026-04-25 06:54 1.52205 86.27701 34886 ft 486 kts 133°
2026-04-25 06:55 1.47524 86.32583 34888 ft 486 kts 133°
2026-04-25 06:55 1.42854 86.37467 34888 ft 486 kts 133°
2026-04-25 06:56 1.38183 86.42354 34886 ft 486 kts 133°
2026-04-25 06:56 1.33512 86.47245 34886 ft 487 kts 133°
2026-04-25 06:57 1.28828 86.52148 34884 ft 487 kts 133°
2026-04-25 06:57 1.24155 86.57040 34883 ft 487 kts 133°
2026-04-25 06:58 1.19467 86.61946 34883 ft 487 kts 133°
2026-04-25 06:58 1.14793 86.66838 34882 ft 487 kts 133°
2026-04-25 06:59 1.10127 86.71721 34883 ft 487 kts 133°
2026-04-25 06:59 1.05429 86.76637 34881 ft 486 kts 133°
2026-04-25 07:00 1.00757 86.81526 34880 ft 487 kts 133°
2026-04-25 07:00 0.96084 86.86416 34880 ft 487 kts 133°
2026-04-25 07:01 0.91420 86.91296 34880 ft 486 kts 133°
2026-04-25 07:01 0.86765 86.96167 34880 ft 486 kts 133°
2026-04-25 07:02 0.82085 87.01064 34880 ft 489 kts 133°
2026-04-25 07:02 0.77380 87.05986 34880 ft 489 kts 133°
2026-04-25 07:03 0.72697 87.10886 34879 ft 487 kts 133°
2026-04-25 07:03 0.68026 87.15773 34880 ft 488 kts 133°
2026-04-25 07:04 0.63330 87.20686 34880 ft 489 kts 133°
2026-04-25 07:04 0.58626 87.25608 34880 ft 489 kts 132°
2026-04-25 07:05 0.53961 87.30488 34880 ft 488 kts 132°
2026-04-25 07:05 0.49421 87.35238 34879 ft 489 kts 132°
2026-04-25 07:06 0.44740 87.40136 34880 ft 488 kts 133°
2026-04-25 07:06 0.40031 87.45054 34879 ft 488 kts 132°
2026-04-25 07:07 0.35341 87.49955 34880 ft 489 kts 133°
2026-04-25 07:07 0.30632 87.54879 34880 ft 490 kts 132°
2026-04-25 07:08 0.25944 87.59781 34880 ft 489 kts 133°
2026-04-25 07:08 0.21284 87.64653 34879 ft 487 kts 133°
2026-04-25 07:09 0.16555 87.69598 34881 ft 489 kts 132°
2026-04-25 07:09 0.11865 87.74502 34879 ft 491 kts 132°
2026-04-25 07:10 0.07161 87.79421 34880 ft 491 kts 132°
2026-04-25 07:10 0.02411 87.84387 34880 ft 490 kts 132°
2026-04-25 07:11 -0.02295 87.89309 34880 ft 489 kts 132°
2026-04-25 07:11 -0.06957 87.94183 34880 ft 489 kts 132°
2026-04-25 07:12 -0.11661 87.99102 34880 ft 488 kts 133°
2026-04-25 07:12 -0.18686 88.06447 34880 ft 489 kts 132°
2026-04-25 07:13 -0.23400 88.11377 34880 ft 490 kts 132°
2026-04-25 07:13 -0.28100 88.16291 34882 ft 490 kts 132°
2026-04-25 07:14 -0.32806 88.21212 34881 ft 491 kts 132°
2026-04-25 07:14 -0.37544 88.26166 34882 ft 491 kts 132°
2026-04-25 07:15 -0.42257 88.31095 34882 ft 490 kts 132°
2026-04-25 07:15 -0.46930 88.35981 34881 ft 490 kts 132°
2026-04-25 07:16 -0.51650 88.40918 34882 ft 491 kts 132°
2026-04-25 07:16 -0.56374 88.45857 34879 ft 490 kts 132°
2026-04-25 07:17 -0.61058 88.50757 34881 ft 490 kts 132°
2026-04-25 07:17 -0.65779 88.55694 34880 ft 491 kts 132°
2026-04-25 07:18 -0.70521 88.60654 34882 ft 492 kts 132°
2026-04-25 07:18 -0.75209 88.65557 34881 ft 490 kts 132°
2026-04-25 07:19 -0.79799 88.70358 34881 ft 490 kts 132°
2026-04-25 07:19 -0.84520 88.75296 34881 ft 491 kts 132°
2026-04-25 07:20 -0.89229 88.80222 34880 ft 491 kts 132°
2026-04-25 07:20 -0.93943 88.85155 34880 ft 491 kts 132°
2026-04-25 07:21 -0.98665 88.90095 34879 ft 491 kts 133°
2026-04-25 07:21 -1.03369 88.95019 34880 ft 490 kts 132°
2026-04-25 07:22 -1.08059 88.99922 34880 ft 490 kts 133°
2026-04-25 07:22 -1.12783 89.04863 34880 ft 490 kts 133°
2026-04-25 07:23 -1.17498 89.09798 34880 ft 490 kts 133°
2026-04-25 07:23 -1.22166 89.14684 34879 ft 489 kts 133°
2026-04-25 07:24 -1.26890 89.19629 34881 ft 491 kts 132°
2026-04-25 07:24 -1.31633 89.24593 34879 ft 492 kts 132°
2026-04-25 07:25 -1.36305 89.29483 34880 ft 489 kts 133°
2026-04-25 07:25 -1.41005 89.34403 34879 ft 491 kts 132°
2026-04-25 07:26 -1.44957 89.38541 34880 ft 494 kts 132°
2026-04-25 07:26 -1.49690 89.43497 34880 ft 494 kts 132°
2026-04-25 07:27 -1.54445 89.48475 34879 ft 491 kts 132°
2026-04-25 07:27 -1.59930 89.54219 34880 ft 491 kts 132°
2026-04-25 07:28 -1.63862 89.58336 34880 ft 491 kts 132°
2026-04-25 07:28 -1.68576 89.63274 34880 ft 491 kts 132°
2026-04-25 07:29 -1.73299 89.68221 34880 ft 493 kts 132°
2026-04-25 07:29 -1.78024 89.73171 34880 ft 493 kts 133°
2026-04-25 07:30 -1.82554 89.77915 34879 ft 491 kts 132°
2026-04-25 07:30 -1.87265 89.82851 34880 ft 492 kts 133°
2026-04-25 07:31 -1.91989 89.87802 34879 ft 491 kts 133°
2026-04-25 07:31 -1.96690 89.92729 34880 ft 491 kts 132°
2026-04-25 07:32 -2.01434 89.97652 34880 ft 492 kts 134°
2026-04-25 07:32 -2.06472 90.02325 34879 ft 492 kts 137°
2026-04-25 07:33 -2.11559 90.06845 34880 ft 493 kts 137°
2026-04-25 07:33 -2.16647 90.11435 34880 ft 494 kts 136°
2026-04-25 07:34 -2.21757 90.16084 34879 ft 493 kts 136°
2026-04-25 07:34 -2.26821 90.20703 34880 ft 492 kts 136°
2026-04-25 07:35 -2.31849 90.25293 34879 ft 493 kts 136°
2026-04-25 07:35 -2.36936 90.29941 34880 ft 493 kts 136°
2026-04-25 07:36 -2.42003 90.34572 34880 ft 493 kts 136°
2026-04-25 07:36 -2.47035 90.39172 34880 ft 493 kts 136°
2026-04-25 07:37 -2.52095 90.43798 34880 ft 493 kts 136°
2026-04-25 07:37 -2.57144 90.48415 34880 ft 492 kts 136°
2026-04-25 07:38 -2.62205 90.53043 34879 ft 492 kts 136°
2026-04-25 07:38 -2.67263 90.57669 34880 ft 493 kts 136°
2026-04-25 07:39 -2.72327 90.62301 34880 ft 493 kts 136°
2026-04-25 07:39 -2.77383 90.66927 34879 ft 492 kts 136°
2026-04-25 07:40 -2.82438 90.71551 34880 ft 492 kts 136°
2026-04-25 07:40 -2.87501 90.76185 34880 ft 493 kts 136°
2026-04-25 07:41 -2.92357 90.80628 34880 ft 493 kts 136°
2026-04-25 07:41 -2.97413 90.85256 34880 ft 493 kts 136°
2026-04-25 07:42 -3.02441 90.89859 34880 ft 492 kts 136°
2026-04-25 07:42 -3.07491 90.94482 34881 ft 492 kts 136°
2026-04-25 07:43 -3.12543 90.99107 34880 ft 491 kts 136°
2026-04-25 07:43 -3.17567 91.03709 34880 ft 491 kts 136°
2026-04-25 07:44 -3.22622 91.08338 34881 ft 492 kts 136°
2026-04-25 07:44 -3.27668 91.12960 34881 ft 492 kts 136°
2026-04-25 07:45 -3.32689 91.17561 34880 ft 491 kts 136°
2026-04-25 07:45 -3.37716 91.22167 34883 ft 491 kts 136°
2026-04-25 07:46 -3.42791 91.26817 34883 ft 491 kts 136°
2026-04-25 07:46 -3.47813 91.31420 34882 ft 491 kts 136°
2026-04-25 07:47 -3.52865 91.36051 34884 ft 492 kts 136°
2026-04-25 07:47 -3.57908 91.40675 34884 ft 491 kts 136°
2026-04-25 07:48 -3.62915 91.45266 34884 ft 491 kts 136°
2026-04-25 07:48 -3.67949 91.49883 34884 ft 491 kts 136°
2026-04-25 07:49 -3.72997 91.54513 34883 ft 491 kts 136°
2026-04-25 07:49 -3.78024 91.59125 34883 ft 491 kts 136°
2026-04-25 07:50 -3.83070 91.63755 34884 ft 491 kts 136°
2026-04-25 07:50 -3.88109 91.68379 34881 ft 491 kts 136°
2026-04-25 07:51 -3.93133 91.72991 34881 ft 491 kts 136°
2026-04-25 07:51 -3.98150 91.77597 34880 ft 491 kts 136°
2026-04-25 07:52 -4.03233 91.82264 34882 ft 492 kts 136°
2026-04-25 07:52 -4.08269 91.86888 34880 ft 491 kts 136°
2026-04-25 07:53 -4.13296 91.91506 34881 ft 491 kts 136°
2026-04-25 07:53 -4.18307 91.96109 34880 ft 490 kts 136°
2026-04-25 07:54 -4.23335 92.00729 34880 ft 490 kts 136°
2026-04-25 07:54 -4.28353 92.05341 34881 ft 491 kts 136°
2026-04-25 07:55 -4.33389 92.09970 34880 ft 491 kts 136°
2026-04-25 07:55 -4.38425 92.14600 34880 ft 491 kts 136°
2026-04-25 07:56 -4.43454 92.19224 34880 ft 491 kts 136°
2026-04-25 07:56 -4.48493 92.23858 34879 ft 491 kts 136°
2026-04-25 07:57 -4.53497 92.28462 34880 ft 491 kts 136°
2026-04-25 07:57 -4.58527 92.33090 34879 ft 491 kts 136°
2026-04-25 07:58 -4.63590 92.37749 34880 ft 491 kts 136°
2026-04-25 07:58 -4.68392 92.42169 34879 ft 491 kts 136°
2026-04-25 07:59 -4.73419 92.46797 34880 ft 491 kts 136°
2026-04-25 07:59 -4.78460 92.51439 34880 ft 491 kts 136°
2026-04-25 08:00 -4.83497 92.56078 34879 ft 491 kts 136°
2026-04-25 08:00 -4.88493 92.60681 34880 ft 489 kts 136°
2026-04-25 08:01 -4.93518 92.65310 34879 ft 489 kts 136°
2026-04-25 08:01 -4.98527 92.69927 34880 ft 487 kts 136°
2026-04-25 08:02 -5.03507 92.74517 34880 ft 488 kts 136°
2026-04-25 08:02 -5.08515 92.79135 34880 ft 487 kts 136°
2026-04-25 08:03 -5.13499 92.83731 34880 ft 487 kts 136°
2026-04-25 08:03 -5.18493 92.88337 34879 ft 488 kts 136°
2026-04-25 08:04 -5.23479 92.92937 34880 ft 488 kts 136°
2026-04-25 08:04 -5.28486 92.97558 34880 ft 487 kts 136°
2026-04-25 08:05 -5.33423 93.02115 34879 ft 488 kts 136°
2026-04-25 08:05 -5.38442 93.06749 34879 ft 487 kts 136°
2026-04-25 08:06 -5.43425 93.11351 34878 ft 487 kts 136°
2026-04-25 08:06 -5.48418 93.15962 34878 ft 485 kts 136°
2026-04-25 08:07 -5.53372 93.20539 34879 ft 486 kts 136°
2026-04-25 08:07 -5.58345 93.25135 34878 ft 486 kts 136°
2026-04-25 08:08 -5.63311 93.29725 34877 ft 485 kts 137°
2026-04-25 08:08 -5.68250 93.34292 34875 ft 482 kts 137°
2026-04-25 08:09 -5.73168 93.38840 34876 ft 482 kts 136°
2026-04-25 08:09 -5.78094 93.43397 34877 ft 484 kts 136°
2026-04-25 08:10 -5.83050 93.47982 34875 ft 483 kts 137°
2026-04-25 08:10 -5.87989 93.52553 34873 ft 482 kts 137°
2026-04-25 08:11 -5.92932 93.57129 34873 ft 483 kts 137°
2026-04-25 08:11 -5.97886 93.61716 34873 ft 483 kts 137°
2026-04-25 08:12 -6.02666 93.66144 34872 ft 484 kts 137°
2026-04-25 08:12 -6.07609 93.70723 34872 ft 483 kts 137°
2026-04-25 08:13 -6.12537 93.75290 34873 ft 483 kts 137°
2026-04-25 08:14 -6.19943 93.82155 34871 ft 485 kts 136°
2026-04-25 08:14 -6.24905 93.86756 34870 ft 485 kts 136°
2026-04-25 08:15 -6.29041 93.90592 34871 ft 484 kts 137°
2026-04-25 08:15 -6.34000 93.95193 34870 ft 484 kts 136°
2026-04-25 08:16 -6.38957 93.99793 34870 ft 486 kts 136°
2026-04-25 08:16 -6.43935 94.04414 34870 ft 487 kts 136°
2026-04-25 08:17 -6.48902 94.09026 34870 ft 487 kts 136°
2026-04-25 08:17 -6.53896 94.13664 34869 ft 487 kts 136°
2026-04-25 08:18 -6.58867 94.18283 34870 ft 487 kts 136°
2026-04-25 08:18 -6.63845 94.22908 34870 ft 488 kts 136°
2026-04-25 08:19 -6.68806 94.27520 34869 ft 488 kts 136°
2026-04-25 08:19 -6.73791 94.32156 34870 ft 489 kts 136°
2026-04-25 08:20 -6.78812 94.36826 34870 ft 488 kts 136°
2026-04-25 08:20 -6.83793 94.41460 34869 ft 488 kts 136°
2026-04-25 08:21 -6.88748 94.46071 34870 ft 488 kts 137°
2026-04-25 08:21 -6.93729 94.50709 34869 ft 488 kts 137°
2026-04-25 08:22 -6.98708 94.55345 34869 ft 488 kts 137°
2026-04-25 08:22 -7.03698 94.59994 34871 ft 489 kts 137°
2026-04-25 08:23 -7.08684 94.64639 34869 ft 488 kts 137°
2026-04-25 08:23 -7.13518 94.69145 34871 ft 488 kts 137°
2026-04-25 08:24 -7.18503 94.73793 34869 ft 489 kts 137°
2026-04-25 08:24 -7.23494 94.78448 34870 ft 488 kts 137°
2026-04-25 08:25 -7.28476 94.83096 34870 ft 488 kts 137°
2026-04-25 08:25 -7.33428 94.87718 34869 ft 488 kts 137°
2026-04-25 08:26 -7.38412 94.92371 34870 ft 488 kts 137°
2026-04-25 08:26 -7.43406 94.97035 34869 ft 491 kts 136°
2026-04-25 08:27 -7.48415 95.01714 34869 ft 491 kts 136°
2026-04-25 08:27 -7.53419 95.06390 34869 ft 488 kts 137°
2026-04-25 08:28 -7.58394 95.11041 34867 ft 491 kts 136°
2026-04-25 08:28 -7.63434 95.15754 34870 ft 494 kts 136°
2026-04-25 08:29 -7.68455 95.20451 34869 ft 489 kts 137°
2026-04-25 08:29 -7.73423 95.25100 34870 ft 488 kts 137°
2026-04-25 08:30 -7.78424 95.29777 34870 ft 490 kts 137°
2026-04-25 08:30 -7.83413 95.34447 34869 ft 490 kts 137°
2026-04-25 08:31 -7.88368 95.39091 34870 ft 489 kts 137°
2026-04-25 08:31 -7.93389 95.43799 34869 ft 490 kts 137°
2026-04-25 08:32 -7.98369 95.48468 34869 ft 489 kts 137°
2026-04-25 08:32 -8.03277 95.53236 34869 ft 490 kts 134°
2026-04-25 08:33 -8.07926 95.58191 34869 ft 490 kts 133°
2026-04-25 08:33 -8.12653 95.63264 34869 ft 493 kts 134°
2026-04-25 08:34 -8.17344 95.68246 34870 ft 494 kts 134°
2026-04-25 08:34 -8.21933 95.73099 34869 ft 495 kts 134°
2026-04-25 08:35 -8.26687 95.78112 34869 ft 493 kts 134°
2026-04-25 08:35 -8.31431 95.83111 34870 ft 493 kts 134°
2026-04-25 08:36 -8.36176 95.88116 34872 ft 495 kts 134°
2026-04-25 08:36 -8.40952 95.93157 34869 ft 496 kts 134°
2026-04-25 08:37 -8.45691 95.98162 34870 ft 496 kts 134°
2026-04-25 08:37 -8.50494 96.03235 34869 ft 499 kts 134°
2026-04-25 08:38 -8.55291 96.08304 34869 ft 497 kts 134°
2026-04-25 08:38 -8.60074 96.13360 34870 ft 500 kts 134°
2026-04-25 08:39 -8.64880 96.18443 34868 ft 503 kts 134°
2026-04-25 08:39 -8.69726 96.23571 34868 ft 502 kts 134°
2026-04-25 08:40 -8.74550 96.28676 34869 ft 501 kts 134°
2026-04-25 08:40 -8.79360 96.33769 34867 ft 501 kts 134°
2026-04-25 08:41 -8.84180 96.38875 34865 ft 503 kts 133°
2026-04-25 08:41 -8.89016 96.44000 34867 ft 503 kts 134°
2026-04-25 08:42 -8.93802 96.49074 34867 ft 502 kts 134°
2026-04-25 08:42 -8.98662 96.54228 34865 ft 502 kts 134°
2026-04-25 08:43 -9.03436 96.59294 34863 ft 500 kts 134°
2026-04-25 08:43 -9.08222 96.64374 34863 ft 499 kts 134°
2026-04-25 08:44 -9.13002 96.69450 34863 ft 500 kts 134°
2026-04-25 08:44 -9.17830 96.74579 34862 ft 501 kts 134°
2026-04-25 08:45 -9.22609 96.79659 34863 ft 500 kts 134°
2026-04-25 08:45 -9.27399 96.84751 34862 ft 499 kts 134°
2026-04-25 08:46 -9.32201 96.89859 34862 ft 500 kts 134°
2026-04-25 08:46 -9.36993 96.94958 34864 ft 500 kts 134°
2026-04-25 08:47 -9.41784 97.00059 34863 ft 500 kts 134°
2026-04-25 08:47 -9.46593 97.05180 34864 ft 500 kts 134°
2026-04-25 08:48 -9.51374 97.10275 34867 ft 501 kts 135°
2026-04-25 08:48 -9.56181 97.15399 34867 ft 502 kts 135°
2026-04-25 08:49 -9.60998 97.20536 34865 ft 501 kts 135°
2026-04-25 08:49 -9.65755 97.25611 34866 ft 501 kts 135°
2026-04-25 08:50 -9.70406 97.30576 34868 ft 504 kts 135°
2026-04-25 08:50 -9.75278 97.35779 34868 ft 505 kts 135°
2026-04-25 08:51 -9.80064 97.40892 34868 ft 503 kts 135°
2026-04-25 08:51 -9.84870 97.46028 34867 ft 502 kts 135°
2026-04-25 08:52 -9.89689 97.51181 34869 ft 504 kts 134°
2026-04-25 08:52 -9.94527 97.56357 34869 ft 505 kts 135°
2026-04-25 08:53 -9.99343 97.61512 34869 ft 504 kts 135°
2026-04-25 08:53 -10.04184 97.66695 34870 ft 504 kts 135°
2026-04-25 08:54 -10.09006 97.71860 34870 ft 505 kts 134°
2026-04-25 08:54 -10.13826 97.77027 34869 ft 505 kts 135°
2026-04-25 08:55 -10.18672 97.82223 34870 ft 505 kts 135°
2026-04-25 08:55 -10.23503 97.87405 34870 ft 506 kts 134°
2026-04-25 08:56 -10.28319 97.92574 34869 ft 507 kts 134°
2026-04-25 08:56 -10.33190 97.97805 34868 ft 506 kts 134°
2026-04-25 08:57 -10.37997 98.02969 34869 ft 508 kts 135°
2026-04-25 08:57 -10.42856 98.08192 34869 ft 510 kts 135°
2026-04-25 08:58 -10.47737 98.13441 34868 ft 509 kts 135°
2026-04-25 08:58 -10.52586 98.18658 34869 ft 508 kts 135°
2026-04-25 08:59 -10.57440 98.23883 34869 ft 511 kts 135°
2026-04-25 08:59 -10.62336 98.29156 34870 ft 514 kts 135°
2026-04-25 09:00 -10.67243 98.34443 34870 ft 512 kts 135°
2026-04-25 09:00 -10.72145 98.39728 34869 ft 511 kts 135°
2026-04-25 09:01 -10.76843 98.44794 34869 ft 513 kts 135°
2026-04-25 09:01 -10.80918 98.49191 34868 ft 515 kts 135°
2026-04-25 09:02 -10.85837 98.54502 34869 ft 514 kts 135°
2026-04-25 09:02 -10.90728 98.59784 34868 ft 513 kts 135°
2026-04-25 09:03 -10.95637 98.65090 34869 ft 515 kts 135°
2026-04-25 09:03 -11.00536 98.70386 34869 ft 515 kts 135°
2026-04-25 09:04 -11.05404 98.75653 34869 ft 514 kts 135°
2026-04-25 09:04 -11.10319 98.80972 34870 ft 515 kts 135°
2026-04-25 09:05 -11.15217 98.86277 34869 ft 515 kts 135°
2026-04-25 09:05 -11.20120 98.91589 34868 ft 514 kts 135°
2026-04-25 09:06 -11.25018 98.96899 34868 ft 514 kts 135°
2026-04-25 09:06 -11.29906 99.02201 34863 ft 515 kts 136°
2026-04-25 09:07 -11.34804 99.07517 34864 ft 515 kts 135°
2026-04-25 09:07 -11.39722 99.12856 34865 ft 516 kts 135°
2026-04-25 09:08 -11.44618 99.18175 34863 ft 515 kts 136°
2026-04-25 09:08 -11.49499 99.23481 34863 ft 514 kts 136°
2026-04-25 09:09 -11.54421 99.28834 34864 ft 515 kts 135°
2026-04-25 09:09 -11.59311 99.34155 34863 ft 515 kts 135°
2026-04-25 09:10 -11.64228 99.39509 34863 ft 516 kts 135°
2026-04-25 09:10 -11.69104 99.44821 34864 ft 518 kts 135°
2026-04-25 09:11 -11.76296 99.52662 34862 ft 515 kts 136°
2026-04-25 09:11 -11.81193 99.58003 34863 ft 515 kts 135°
2026-04-25 09:12 -11.86058 99.63313 34867 ft 517 kts 135°
2026-04-25 09:12 -11.90997 99.68707 34866 ft 516 kts 135°
2026-04-25 09:13 -11.95880 99.74043 34866 ft 516 kts 135°
2026-04-25 09:13 -12.00782 99.79403 34867 ft 516 kts 135°
2026-04-25 09:14 -12.05679 99.84759 34867 ft 516 kts 135°
2026-04-25 09:14 -12.10585 99.90131 34868 ft 516 kts 135°
2026-04-25 09:15 -12.15478 99.95489 34867 ft 517 kts 135°
2026-04-25 09:15 -12.20396 100.00879 34867 ft 518 kts 135°
2026-04-25 09:16 -12.25301 100.06257 34867 ft 517 kts 135°
2026-04-25 09:16 -12.30190 100.11621 34863 ft 517 kts 135°
2026-04-25 09:17 -12.37569 100.19723 34855 ft 520 kts 135°
2026-04-25 09:18 -12.42497 100.25137 34859 ft 518 kts 135°
2026-04-25 09:18 -12.47405 100.30533 34859 ft 518 kts 135°
2026-04-25 09:19 -12.52321 100.35941 34848 ft 522 kts 135°
2026-04-25 09:19 -12.57240 100.41356 34847 ft 522 kts 135°
2026-04-25 09:20 -12.62210 100.46830 34850 ft 521 kts 135°
2026-04-25 09:20 -12.67114 100.52235 34846 ft 521 kts 135°
2026-04-25 09:21 -12.72056 100.57686 34841 ft 523 kts 135°
2026-04-25 09:21 -12.77004 100.63145 34840 ft 523 kts 135°
2026-04-25 09:22 -12.81678 100.68305 34840 ft 523 kts 135°
2026-04-25 09:22 -12.86635 100.73782 34840 ft 523 kts 135°
2026-04-25 09:23 -12.91584 100.79253 34839 ft 524 kts 135°
2026-04-25 09:23 -12.96530 100.84724 34840 ft 525 kts 135°
2026-04-25 09:24 -13.01508 100.90234 34840 ft 525 kts 135°
2026-04-25 09:24 -13.06460 100.95719 34840 ft 526 kts 135°
2026-04-25 09:25 -13.11413 101.01208 34840 ft 525 kts 136°
2026-04-25 09:25 -13.16361 101.06696 34840 ft 525 kts 135°
2026-04-25 09:26 -13.21353 101.12235 34840 ft 526 kts 135°
2026-04-25 09:26 -13.26288 101.17715 34841 ft 526 kts 135°
2026-04-25 09:27 -13.31281 101.23262 34840 ft 524 kts 135°
2026-04-25 09:27 -13.36191 101.28722 34842 ft 525 kts 135°
2026-04-25 09:28 -13.41188 101.34282 34843 ft 525 kts 135°
2026-04-25 09:28 -13.46135 101.39788 34842 ft 525 kts 135°
2026-04-25 09:29 -13.51052 101.45267 34842 ft 525 kts 135°
2026-04-25 09:29 -13.56033 101.50819 34846 ft 525 kts 135°
2026-04-25 09:30 -13.60961 101.56317 34848 ft 525 kts 135°
2026-04-25 09:30 -13.65907 101.61838 34846 ft 525 kts 135°
2026-04-25 09:31 -13.70858 101.67368 34846 ft 525 kts 135°
2026-04-25 09:31 -13.75807 101.72901 34848 ft 526 kts 135°
2026-04-25 09:32 -13.80570 101.78217 34849 ft 528 kts 135°
2026-04-25 09:32 -13.85547 101.83787 34849 ft 526 kts 135°
2026-04-25 09:33 -13.90501 101.89340 34850 ft 526 kts 135°
2026-04-25 09:33 -13.95424 101.94864 34849 ft 528 kts 135°
2026-04-25 09:34 -14.00422 102.00481 34848 ft 528 kts 134°
2026-04-25 09:34 -14.05094 102.06317 34851 ft 529 kts 130°
2026-04-25 09:35 -14.09544 102.12283 34851 ft 530 kts 129°
2026-04-25 09:35 -14.14066 102.18270 34852 ft 530 kts 130°
2026-04-25 09:36 -14.18660 102.24295 34853 ft 529 kts 130°
2026-04-25 09:36 -14.23190 102.30208 34854 ft 529 kts 130°
2026-04-25 09:37 -14.27751 102.36145 34855 ft 529 kts 130°
2026-04-25 09:37 -14.32323 102.42109 34856 ft 529 kts 130°
2026-04-25 09:38 -14.36867 102.48046 34858 ft 529 kts 130°
2026-04-25 09:38 -14.41430 102.54013 34858 ft 529 kts 130°
2026-04-25 09:39 -14.46001 102.59994 34861 ft 529 kts 130°
2026-04-25 09:39 -14.50557 102.65962 34861 ft 529 kts 130°
2026-04-25 09:40 -14.57392 102.74922 34862 ft 530 kts 130°
2026-04-25 09:40 -14.61958 102.80912 34861 ft 531 kts 130°
2026-04-25 09:41 -14.66513 102.86893 34861 ft 531 kts 130°
2026-04-25 09:41 -14.71077 102.92891 34862 ft 531 kts 130°
2026-04-25 09:42 -14.75512 102.98724 34861 ft 532 kts 130°
2026-04-25 09:42 -14.80050 103.04696 34861 ft 532 kts 129°
2026-04-25 09:43 -14.84622 103.10717 34879 ft 534 kts 129°
2026-04-25 09:43 -14.86927 103.13755 35109 ft 538 kts 130°
2026-04-25 09:43 -14.89230 103.16791 35574 ft 536 kts 129°
2026-04-25 09:44 -14.91527 103.19821 36084 ft 534 kts 129°
2026-04-25 09:44 -14.93837 103.22868 36574 ft 533 kts 129°
2026-04-25 09:44 -14.96120 103.25882 36849 ft 534 kts 130°
2026-04-25 09:44 -14.98409 103.28905 36865 ft 534 kts 130°
2026-04-25 09:45 -15.02993 103.34961 36865 ft 532 kts 129°
2026-04-25 09:45 -15.07519 103.40945 36868 ft 531 kts 130°
2026-04-25 09:46 -15.12078 103.46977 36870 ft 531 kts 129°
2026-04-25 09:46 -15.16616 103.52987 36872 ft 531 kts 129°
2026-04-25 09:47 -15.21157 103.59005 36871 ft 531 kts 129°
2026-04-25 09:47 -15.25697 103.65026 36874 ft 530 kts 129°
2026-04-25 09:48 -15.29474 103.70039 36876 ft 529 kts 129°
2026-04-25 09:48 -15.34000 103.76050 36876 ft 529 kts 129°
2026-04-25 09:49 -15.38528 103.82069 36876 ft 529 kts 129°
2026-04-25 09:49 -15.43048 103.88082 36877 ft 530 kts 129°
2026-04-25 09:50 -15.47570 103.94104 36878 ft 530 kts 129°
2026-04-25 09:50 -15.52071 104.00101 36880 ft 530 kts 129°
2026-04-25 09:51 -15.56631 104.06182 36879 ft 530 kts 129°
2026-04-25 09:51 -15.61165 104.12232 36880 ft 531 kts 129°
2026-04-25 09:52 -15.65686 104.18271 36880 ft 531 kts 129°
2026-04-25 09:52 -15.70217 104.24327 36880 ft 531 kts 129°
2026-04-25 09:53 -15.74745 104.30385 36880 ft 531 kts 129°
2026-04-25 09:53 -15.79281 104.36458 36882 ft 532 kts 129°
2026-04-25 09:54 -15.83806 104.42523 36882 ft 532 kts 129°
2026-04-25 09:54 -15.88167 104.48370 36882 ft 532 kts 129°
2026-04-25 09:55 -15.92708 104.54465 36883 ft 532 kts 129°
2026-04-25 09:55 -15.97235 104.60547 36883 ft 533 kts 129°
2026-04-25 09:56 -16.01755 104.66624 36884 ft 533 kts 129°
2026-04-25 09:56 -16.06280 104.72713 36884 ft 533 kts 129°
2026-04-25 09:57 -16.10785 104.78778 36884 ft 533 kts 129°
2026-04-25 09:57 -16.15349 104.84930 36885 ft 534 kts 129°
2026-04-25 09:58 -16.19886 104.91051 36886 ft 534 kts 129°
2026-04-25 09:58 -16.24422 104.97174 36887 ft 534 kts 129°
2026-04-25 09:59 -16.28954 105.03299 36890 ft 534 kts 129°
2026-04-25 09:59 -16.33502 105.09449 36893 ft 535 kts 129°
2026-04-25 10:00 -16.37998 105.15535 36895 ft 535 kts 129°
2026-04-25 10:00 -16.42545 105.21695 36895 ft 535 kts 129°
2026-04-25 10:01 -16.47077 105.27839 36898 ft 535 kts 129°
2026-04-25 10:01 -16.51647 105.34041 36899 ft 536 kts 129°
2026-04-25 10:02 -16.56168 105.40182 36901 ft 537 kts 129°
2026-04-25 10:02 -16.60702 105.46345 36903 ft 537 kts 129°
2026-04-25 10:03 -16.65269 105.52559 36905 ft 538 kts 129°
2026-04-25 10:03 -16.69794 105.58721 36905 ft 538 kts 129°
2026-04-25 10:04 -16.74371 105.64959 36907 ft 538 kts 129°
2026-04-25 10:04 -16.78887 105.71121 36906 ft 538 kts 129°
2026-04-25 10:05 -16.83448 105.77331 36909 ft 539 kts 129°
2026-04-25 10:05 -16.88001 105.83554 36908 ft 540 kts 129°
2026-04-25 10:06 -16.92550 105.89785 36910 ft 540 kts 129°
2026-04-25 10:06 -16.97102 105.96026 36910 ft 540 kts 129°
2026-04-25 10:07 -17.01634 106.02282 36910 ft 540 kts 127°
2026-04-25 10:07 -17.05996 106.08705 36910 ft 541 kts 126°
2026-04-25 10:08 -17.10335 106.15155 36911 ft 541 kts 126°
2026-04-25 10:08 -17.14626 106.21500 36912 ft 540 kts 126°
2026-04-25 10:09 -17.18984 106.27936 36912 ft 540 kts 126°
2026-04-25 10:09 -17.23333 106.34326 36912 ft 540 kts 127°
2026-04-25 10:10 -17.27694 106.40741 36913 ft 540 kts 127°
2026-04-25 10:10 -17.32033 106.47141 36914 ft 539 kts 127°
2026-04-25 10:11 -17.36362 106.53536 36914 ft 539 kts 127°
2026-04-25 10:11 -17.40675 106.59914 36913 ft 539 kts 127°
2026-04-25 10:12 -17.45026 106.66355 36919 ft 539 kts 127°
2026-04-25 10:13 -17.51349 106.75726 36920 ft 540 kts 126°
2026-04-25 10:13 -17.55678 106.82150 36917 ft 539 kts 126°
2026-04-25 10:14 -17.59986 106.88548 36923 ft 540 kts 126°
2026-04-25 10:14 -17.64319 106.94991 36927 ft 543 kts 126°
2026-04-25 10:15 -17.68681 107.01482 36925 ft 543 kts 126°
2026-04-25 10:15 -17.73020 107.07944 36924 ft 541 kts 126°
2026-04-25 10:16 -17.77350 107.14401 36929 ft 542 kts 126°
2026-04-25 10:16 -17.81696 107.20887 36930 ft 543 kts 126°
2026-04-25 10:17 -17.86038 107.27374 36929 ft 543 kts 126°
2026-04-25 10:17 -17.90378 107.33864 36929 ft 543 kts 126°
2026-04-25 10:18 -17.94711 107.40350 36936 ft 543 kts 126°
2026-04-25 10:18 -17.99043 107.46840 36937 ft 543 kts 126°
2026-04-25 10:19 -18.03130 107.52970 36934 ft 543 kts 126°
2026-04-25 10:19 -18.07435 107.59433 36938 ft 543 kts 126°
2026-04-25 10:20 -18.11748 107.65915 36940 ft 542 kts 126°
2026-04-25 10:20 -18.16073 107.72420 36940 ft 542 kts 126°
2026-04-25 10:21 -18.20390 107.78922 36940 ft 542 kts 126°
2026-04-25 10:21 -18.24712 107.85435 36941 ft 542 kts 126°
2026-04-25 10:22 -18.28986 107.91885 36942 ft 542 kts 126°
2026-04-25 10:22 -18.33299 107.98399 36943 ft 542 kts 126°
2026-04-25 10:23 -18.37466 108.04698 36943 ft 542 kts 126°
2026-04-25 10:23 -18.41766 108.11205 36947 ft 542 kts 126°
2026-04-25 10:24 -18.46068 108.17723 36947 ft 542 kts 126°
2026-04-25 10:24 -18.50341 108.24202 36952 ft 542 kts 126°
2026-04-25 10:25 -18.54656 108.30751 36956 ft 543 kts 126°
2026-04-25 10:25 -18.58961 108.37293 36957 ft 543 kts 126°
2026-04-25 10:26 -18.63235 108.43795 36954 ft 543 kts 126°
2026-04-25 10:26 -18.67562 108.50383 36960 ft 543 kts 126°
2026-04-25 10:27 -18.71856 108.56927 36964 ft 543 kts 126°
2026-04-25 10:27 -18.76136 108.63458 36964 ft 543 kts 126°
2026-04-25 10:28 -18.80444 108.70039 36963 ft 543 kts 125°
2026-04-25 10:28 -18.84743 108.76589 36968 ft 543 kts 126°
2026-04-25 10:29 -18.89017 108.83133 36969 ft 542 kts 126°
2026-04-25 10:29 -18.93271 108.89663 36968 ft 543 kts 125°
2026-04-25 10:30 -18.97553 108.96239 36968 ft 543 kts 125°
2026-04-25 10:30 -19.01844 109.02796 36971 ft 542 kts 127°
2026-04-25 10:31 -19.06261 109.09233 36971 ft 542 kts 127°
2026-04-25 10:31 -19.10691 109.15699 36971 ft 542 kts 127°
2026-04-25 10:32 -19.15109 109.22184 36970 ft 542 kts 127°
2026-04-25 10:32 -19.19510 109.28661 36978 ft 543 kts 127°
2026-04-25 10:33 -19.23710 109.34811 36978 ft 544 kts 127°
2026-04-25 10:33 -19.28146 109.41322 36976 ft 543 kts 127°
2026-04-25 10:34 -19.31797 109.46697 36978 ft 543 kts 127°
2026-04-25 10:34 -19.36932 109.54270 36988 ft 544 kts 127°
2026-04-25 10:35 -19.40610 109.59702 36986 ft 544 kts 127°
2026-04-25 10:35 -19.45024 109.66227 36984 ft 543 kts 127°
2026-04-25 10:36 -19.49432 109.72749 36990 ft 543 kts 127°
2026-04-25 10:36 -19.53834 109.79270 36999 ft 545 kts 127°
2026-04-25 10:37 -19.58227 109.85786 36998 ft 546 kts 127°
2026-04-25 10:37 -19.62671 109.92384 36997 ft 546 kts 127°
2026-04-25 10:38 -19.67065 109.98914 37003 ft 546 kts 127°
2026-04-25 10:38 -19.71447 110.05434 37005 ft 547 kts 127°
2026-04-25 10:39 -19.75868 110.12019 37005 ft 547 kts 127°
2026-04-25 10:39 -19.80270 110.18583 37006 ft 546 kts 127°
2026-04-25 10:40 -19.84689 110.25180 37006 ft 546 kts 127°
2026-04-25 10:40 -19.89091 110.31759 37005 ft 546 kts 127°
2026-04-25 10:41 -19.93486 110.38334 37005 ft 546 kts 127°
2026-04-25 10:41 -19.97883 110.44920 37004 ft 546 kts 126°
2026-04-25 10:42 -20.02268 110.51494 37004 ft 546 kts 127°
2026-04-25 10:42 -20.06668 110.58100 37003 ft 546 kts 126°
2026-04-25 10:43 -20.10847 110.64379 37003 ft 547 kts 126°
2026-04-25 10:43 -20.15256 110.71012 37002 ft 547 kts 126°
2026-04-25 10:44 -20.19631 110.77601 37002 ft 547 kts 126°
2026-04-25 10:44 -20.24024 110.84225 37003 ft 546 kts 126°
2026-04-25 10:45 -20.28407 110.90841 37003 ft 547 kts 126°
2026-04-25 10:45 -20.32794 110.97470 37003 ft 547 kts 126°
2026-04-25 10:46 -20.37171 111.04092 37002 ft 547 kts 126°
2026-04-25 10:46 -20.41541 111.10712 37004 ft 546 kts 126°
2026-04-25 10:47 -20.45889 111.17304 37004 ft 547 kts 126°
2026-04-25 10:47 -20.50262 111.23942 37004 ft 547 kts 126°
2026-04-25 10:48 -20.54614 111.30558 37004 ft 546 kts 126°
2026-04-25 10:48 -20.58996 111.37225 37007 ft 547 kts 126°
2026-04-25 10:49 -20.63367 111.43885 37008 ft 548 kts 126°
2026-04-25 10:49 -20.67728 111.50534 37007 ft 548 kts 126°
2026-04-25 10:50 -20.72097 111.57207 37007 ft 547 kts 126°
2026-04-25 10:50 -20.76467 111.63887 37009 ft 547 kts 126°
2026-04-25 10:51 -20.80789 111.70501 37009 ft 547 kts 126°
2026-04-25 10:51 -20.85152 111.77159 37009 ft 547 kts 126°
2026-04-25 10:52 -20.89529 111.83880 37009 ft 547 kts 126°
2026-04-25 10:52 -20.93850 111.90528 37010 ft 547 kts 126°
2026-04-25 10:53 -20.97878 111.96730 37010 ft 547 kts 126°
2026-04-25 10:53 -21.02171 112.03442 37009 ft 547 kts 124°
2026-04-25 10:54 -21.06246 112.10300 37010 ft 547 kts 122°
2026-04-25 10:54 -21.10322 112.17190 37010 ft 547 kts 123°
2026-04-25 10:55 -21.14423 112.24081 37010 ft 547 kts 123°
2026-04-25 10:55 -21.18515 112.30947 37011 ft 547 kts 123°
2026-04-25 10:56 -21.22628 112.37792 37011 ft 547 kts 123°
2026-04-25 10:56 -21.26719 112.44632 37010 ft 547 kts 123°
2026-04-25 10:57 -21.30854 112.51566 37011 ft 546 kts 123°
2026-04-25 10:57 -21.34902 112.58366 37011 ft 544 kts 123°
2026-04-25 10:58 -21.38968 112.65206 37010 ft 545 kts 123°
2026-04-25 10:58 -21.43051 112.72084 37010 ft 545 kts 123°
2026-04-25 10:59 -21.47118 112.78943 37011 ft 545 kts 122°
2026-04-25 10:59 -21.51184 112.85808 37011 ft 546 kts 122°
2026-04-25 11:00 -21.55260 112.92700 37011 ft 545 kts 123°
2026-04-25 11:00 -21.59325 112.99582 37010 ft 545 kts 123°
2026-04-25 11:01 -21.63388 113.06468 37011 ft 546 kts 123°
2026-04-25 11:01 -21.67457 113.13374 37010 ft 547 kts 122°
2026-04-25 11:02 -21.71499 113.20243 37010 ft 547 kts 122°
2026-04-25 11:02 -21.75276 113.26668 37011 ft 547 kts 122°
2026-04-25 11:03 -21.79347 113.33604 37011 ft 547 kts 122°
2026-04-25 11:03 -21.83410 113.40533 37011 ft 547 kts 122°
2026-04-25 11:04 -21.87449 113.47432 37012 ft 546 kts 122°
2026-04-25 11:04 -21.91510 113.54376 37012 ft 546 kts 122°
2026-04-25 11:05 -21.95553 113.61298 37012 ft 546 kts 122°
2026-04-25 11:05 -21.99596 113.68230 37013 ft 546 kts 123°
2026-04-25 11:06 -22.03616 113.75131 37016 ft 548 kts 123°
2026-04-25 11:06 -22.07680 113.82098 37016 ft 548 kts 123°
2026-04-25 11:07 -22.11723 113.89042 37015 ft 547 kts 122°
2026-04-25 11:07 -22.15760 113.96013 37018 ft 547 kts 123°
2026-04-25 11:08 -22.19763 114.02935 37019 ft 547 kts 123°
2026-04-25 11:08 -22.24041 114.09706 37020 ft 545 kts 131°
2026-04-25 11:09 -22.29271 114.15678 37018 ft 544 kts 139°
2026-04-25 11:09 -22.34841 114.21219 37011 ft 542 kts 141°
2026-04-25 11:10 -22.40379 114.26731 37009 ft 541 kts 140°
2026-04-25 11:10 -22.45864 114.32311 37014 ft 542 kts 139°
2026-04-25 11:11 -22.51353 114.37913 37004 ft 543 kts 140°
2026-04-25 11:11 -22.56820 114.43498 36982 ft 539 kts 140°
2026-04-25 11:12 -22.62238 114.49057 36983 ft 540 kts 140°
2026-04-25 11:12 -22.67721 114.54694 36988 ft 542 kts 139°
2026-04-25 11:13 -22.72904 114.60029 36979 ft 540 kts 139°
2026-04-25 11:13 -22.78348 114.65642 36975 ft 538 kts 140°
2026-04-25 11:14 -22.83723 114.71188 36975 ft 538 kts 140°
2026-04-25 11:14 -22.89142 114.76787 36973 ft 538 kts 140°
2026-04-25 11:15 -22.94562 114.82394 36972 ft 538 kts 140°
2026-04-25 11:15 -22.99964 114.87990 36971 ft 538 kts 140°
2026-04-25 11:16 -23.08067 114.96393 36971 ft 537 kts 140°
2026-04-25 11:16 -23.13466 115.02001 36971 ft 537 kts 139°
2026-04-25 11:17 -23.18860 115.07611 36971 ft 537 kts 139°
2026-04-25 11:17 -23.24257 115.13229 36976 ft 537 kts 140°
2026-04-25 11:18 -23.29667 115.18869 36976 ft 538 kts 140°
2026-04-25 11:18 -23.35057 115.24493 36974 ft 538 kts 140°
2026-04-25 11:19 -23.40447 115.30125 36977 ft 538 kts 140°
2026-04-25 11:19 -23.45821 115.35747 36981 ft 539 kts 140°
2026-04-25 11:20 -23.51222 115.41404 36982 ft 539 kts 140°
2026-04-25 11:20 -23.56631 115.47075 36981 ft 539 kts 140°
2026-04-25 11:21 -23.62048 115.52762 36987 ft 540 kts 140°
2026-04-25 11:21 -23.67468 115.58460 36989 ft 542 kts 140°
2026-04-25 11:22 -23.71973 115.63200 36989 ft 542 kts 140°
2026-04-25 11:22 -23.78304 115.69869 36989 ft 543 kts 140°
2026-04-25 11:23 -23.82847 115.74662 36990 ft 543 kts 140°
2026-04-25 11:23 -23.88269 115.80388 36989 ft 543 kts 140°
2026-04-25 11:24 -23.93714 115.86145 36990 ft 543 kts 140°
2026-04-25 11:24 -23.99130 115.91880 36990 ft 542 kts 140°
2026-04-25 11:25 -24.04136 115.97185 36990 ft 544 kts 140°
2026-04-25 11:25 -24.09695 116.03083 36991 ft 541 kts 141°
2026-04-25 11:26 -24.15064 116.08787 36991 ft 539 kts 141°
2026-04-25 11:26 -24.20425 116.14494 36993 ft 539 kts 140°
2026-04-25 11:27 -24.25831 116.20251 36992 ft 542 kts 140°
2026-04-25 11:27 -24.30344 116.25065 36996 ft 539 kts 141°
2026-04-25 11:28 -24.36570 116.31712 37000 ft 538 kts 141°
2026-04-25 11:28 -24.41933 116.37446 36999 ft 539 kts 141°
2026-04-25 11:29 -24.47307 116.43201 37007 ft 539 kts 141°
2026-04-25 11:29 -24.52672 116.48949 37009 ft 540 kts 141°
2026-04-25 11:30 -24.58046 116.54715 37014 ft 540 kts 141°
2026-04-25 11:30 -24.63428 116.60499 37015 ft 540 kts 141°
2026-04-25 11:31 -24.68791 116.66270 37018 ft 540 kts 141°
2026-04-25 11:31 -24.74158 116.72053 37018 ft 541 kts 141°
2026-04-25 11:32 -24.79543 116.77844 37025 ft 541 kts 141°
2026-04-25 11:32 -24.84900 116.83625 37027 ft 538 kts 141°
2026-04-25 11:33 -24.90237 116.89407 37026 ft 540 kts 141°
2026-04-25 11:33 -24.95604 116.95229 37026 ft 542 kts 141°
2026-04-25 11:34 -25.00919 117.01022 37031 ft 537 kts 140°
2026-04-25 11:34 -25.05937 117.07134 37028 ft 538 kts 136°
2026-04-25 11:35 -25.10755 117.13366 37029 ft 542 kts 136°
2026-04-25 11:35 -25.15363 117.19248 37030 ft 543 kts 137°
2026-04-25 11:36 -25.20315 117.25513 37032 ft 540 kts 137°
2026-04-25 11:36 -25.25291 117.31774 37031 ft 540 kts 137°
2026-04-25 11:37 -25.30223 117.37959 37030 ft 539 kts 137°
2026-04-25 11:37 -25.35180 117.44204 37029 ft 540 kts 137°
2026-04-25 11:38 -25.40114 117.50435 37033 ft 542 kts 137°
2026-04-25 11:38 -25.45091 117.56731 37031 ft 541 kts 137°
2026-04-25 11:39 -25.50034 117.62992 37032 ft 540 kts 137°
2026-04-25 11:39 -25.54946 117.69224 37047 ft 539 kts 137°
2026-04-25 11:40 -25.59886 117.75498 37047 ft 538 kts 137°
2026-04-25 11:40 -25.64822 117.81777 37041 ft 540 kts 137°
2026-04-25 11:41 -25.69730 117.88028 37050 ft 540 kts 137°
2026-04-25 11:41 -25.74676 117.94338 37048 ft 547 kts 130°
2026-04-25 11:42 -25.79722 118.00783 37055 ft 558 kts 133°
2026-04-25 11:42 -25.84829 118.07316 37057 ft 558 kts 127°
2026-04-25 11:43 -25.89881 118.13787 37060 ft 553 kts 127°
2026-04-25 11:43 -25.94870 118.20189 37053 ft 546 kts 126°
2026-04-25 11:44 -25.99818 118.26544 37052 ft 543 kts 129°
2026-04-25 11:44 -26.04783 118.32931 37050 ft 545 kts 127°
2026-04-25 11:45 -26.08870 118.38196 37041 ft 538 kts 131°
2026-04-25 11:45 -26.14109 118.44953 37038 ft 531 kts 133°
2026-04-25 11:46 -26.18922 118.51170 37039 ft 531 kts 131°
2026-04-25 11:46 -26.23743 118.57405 37031 ft 523 kts 133°
2026-04-25 11:47 -26.28438 118.63486 37028 ft 514 kts 133°
2026-04-25 11:47 -26.33031 118.69444 37024 ft 505 kts 133°
2026-04-25 11:48 -26.37608 118.75388 37031 ft 509 kts 132°
2026-04-25 11:48 -26.42216 118.81380 37027 ft 506 kts 133°
2026-04-25 11:49 -26.46821 118.87376 37046 ft 511 kts 133°
2026-04-25 11:49 -26.51442 118.93401 37041 ft 512 kts 133°
2026-04-25 11:50 -26.56075 118.99451 37045 ft 516 kts 133°
2026-04-25 11:50 -26.60775 119.05595 37056 ft 524 kts 133°
2026-04-25 11:51 -26.65562 119.11864 37070 ft 534 kts 133°
2026-04-25 11:51 -26.70407 119.18216 37074 ft 539 kts 133°
2026-04-25 11:52 -26.75290 119.24629 37082 ft 544 kts 132°
2026-04-25 11:52 -26.80186 119.31065 37081 ft 550 kts 131°
2026-04-25 11:53 -26.85147 119.37599 37085 ft 552 kts 132°
2026-04-25 11:53 -26.90099 119.44129 37079 ft 549 kts 131°
2026-04-25 11:54 -26.95047 119.50664 37083 ft 550 kts 131°
2026-04-25 11:55 -27.01634 119.59383 37086 ft 549 kts 131°
2026-04-25 11:55 -27.07025 119.66529 37082 ft 549 kts 131°
2026-04-25 11:56 -27.11959 119.73078 37095 ft 548 kts 130°
2026-04-25 11:56 -27.16862 119.79594 37101 ft 546 kts 129°
2026-04-25 11:57 -27.21770 119.86130 37105 ft 548 kts 130°
2026-04-25 11:57 -27.26663 119.92658 37105 ft 543 kts 133°
2026-04-25 11:58 -27.31520 119.99143 37116 ft 545 kts 131°
2026-04-25 11:58 -27.36392 120.05659 37121 ft 545 kts 134°
2026-04-25 11:59 -27.41308 120.12247 37129 ft 553 kts 133°
2026-04-25 11:59 -27.46206 120.18814 37136 ft 540 kts 136°
2026-04-25 12:00 -27.53377 120.28454 37144 ft 533 kts 136°
2026-04-25 12:01 -27.60524 120.38082 37146 ft 534 kts 136°
2026-04-25 12:01 -27.65302 120.44512 37149 ft 534 kts 136°
2026-04-25 12:02 -27.72429 120.54141 37147 ft 533 kts 136°
2026-04-25 12:02 -27.77170 120.60582 37150 ft 533 kts 136°
2026-04-25 12:03 -27.81917 120.67031 37153 ft 533 kts 136°
2026-04-25 12:03 -27.86306 120.73797 37157 ft 536 kts 128°
2026-04-25 12:04 -27.90090 120.81104 37160 ft 541 kts 124°
2026-04-25 12:04 -27.93726 120.88508 37156 ft 543 kts 124°
2026-04-25 12:05 -27.97460 120.95905 37153 ft 543 kts 119°
2026-04-25 12:05 -28.00633 121.02128 37152 ft 545 kts 119°
2026-04-25 12:06 -28.04726 121.10058 37159 ft 549 kts 125°
2026-04-25 12:06 -28.08546 121.17479 37157 ft 544 kts 123°
2026-04-25 12:07 -28.12292 121.24790 37136 ft 531 kts 122°
2026-04-25 12:07 -28.14131 121.28387 37123 ft 517 kts 121°
2026-04-25 12:07 -28.15904 121.31860 37123 ft 506 kts 121°
2026-04-25 12:08 -28.19429 121.38772 37112 ft 507 kts 120°
2026-04-25 12:08 -28.22919 121.45626 37097 ft 495 kts 121°
2026-04-25 12:09 -28.25760 121.51215 37091 ft 491 kts 121°
2026-04-25 12:09 -28.29768 121.59112 37099 ft 499 kts 120°
2026-04-25 12:10 -28.32642 121.64785 37079 ft 495 kts 120°
2026-04-25 12:10 -28.36581 121.72572 37053 ft 485 kts 120°
2026-04-25 12:11 -28.39929 121.79200 37060 ft 483 kts 120°
2026-04-25 12:11 -28.43276 121.85840 37064 ft 486 kts 120°
2026-04-25 12:12 -28.46070 121.91389 37050 ft 484 kts 120°
2026-04-25 12:12 -28.49399 121.98011 37038 ft 480 kts 120°
2026-04-25 12:13 -28.52708 122.04604 37044 ft 481 kts 120°
2026-04-25 12:13 -28.56024 122.11221 37051 ft 482 kts 120°
2026-04-25 12:14 -28.62961 122.25097 37071 ft 487 kts 120°
2026-04-25 12:15 -28.66296 122.31786 37089 ft 487 kts 120°
2026-04-25 12:15 -28.69649 122.38520 37130 ft 496 kts 119°
2026-04-25 12:16 -28.73070 122.45405 37140 ft 503 kts 119°
2026-04-25 12:16 -28.76163 122.51639 37127 ft 502 kts 120°
2026-04-25 12:17 -28.79586 122.58546 37125 ft 498 kts 119°
2026-04-25 12:17 -28.83009 122.65469 37163 ft 504 kts 118°
2026-04-25 12:18 -28.86491 122.72475 37178 ft 511 kts 118°
2026-04-25 12:18 -28.89968 122.79527 37180 ft 511 kts 118°
2026-04-25 12:19 -28.95193 122.90183 37194 ft 515 kts 119°
2026-04-25 12:20 -28.98696 122.97332 37193 ft 514 kts 118°
2026-04-25 12:20 -29.02225 123.04416 37203 ft 512 kts 122°
2026-04-25 12:21 -29.05853 123.11270 37209 ft 503 kts 124°
2026-04-25 12:21 -29.09464 123.18133 37206 ft 501 kts 124°
2026-04-25 12:22 -29.13062 123.25026 37204 ft 505 kts 124°
2026-04-25 12:22 -29.16630 123.31888 37216 ft 504 kts 124°
2026-04-25 12:23 -29.20237 123.38772 37230 ft 499 kts 124°
2026-04-25 12:23 -29.23807 123.45591 37229 ft 499 kts 124°
2026-04-25 12:24 -29.27356 123.52412 37231 ft 499 kts 123°
2026-04-25 12:24 -29.30883 123.59213 37239 ft 499 kts 123°
2026-04-25 12:25 -29.34422 123.66052 37239 ft 498 kts 124°
2026-04-25 12:25 -29.37942 123.72867 37246 ft 498 kts 123°
2026-04-25 12:26 -29.41458 123.79685 37257 ft 494 kts 123°
2026-04-25 12:26 -29.44946 123.86462 37256 ft 493 kts 123°
2026-04-25 12:27 -29.48439 123.93259 37252 ft 497 kts 123°
2026-04-25 12:27 -29.51734 123.99682 37256 ft 497 kts 123°
2026-04-25 12:28 -29.55227 124.06501 37271 ft 492 kts 123°
2026-04-25 12:28 -29.58672 124.13238 37269 ft 488 kts 123°
2026-04-25 12:29 -29.62113 124.19978 37269 ft 488 kts 123°
2026-04-25 12:29 -29.65548 124.26719 37271 ft 488 kts 122°
2026-04-25 12:30 -29.68969 124.33443 37271 ft 487 kts 122°
2026-04-25 12:30 -29.72393 124.40184 37271 ft 488 kts 122°
2026-04-25 12:31 -29.75810 124.46923 37272 ft 488 kts 122°
2026-04-25 12:31 -29.79218 124.53654 37272 ft 487 kts 122°
2026-04-25 12:32 -29.82630 124.60407 37272 ft 487 kts 122°
2026-04-25 12:32 -29.86016 124.67118 37272 ft 488 kts 122°
2026-04-25 12:33 -29.89407 124.73852 37271 ft 483 kts 122°
2026-04-25 12:33 -29.92786 124.80570 37270 ft 482 kts 122°
2026-04-25 12:34 -29.96151 124.87274 37270 ft 485 kts 122°
2026-04-25 12:34 -29.99537 124.94032 37272 ft 486 kts 122°
2026-04-25 12:35 -30.02880 125.00713 37270 ft 482 kts 122°
2026-04-25 12:35 -30.06257 125.07475 37273 ft 484 kts 122°
2026-04-25 12:36 -30.09597 125.14175 37270 ft 479 kts 122°
2026-04-25 12:36 -30.12887 125.20785 37272 ft 477 kts 122°
2026-04-25 12:37 -30.16190 125.27432 37272 ft 477 kts 122°
2026-04-25 12:37 -30.19503 125.34111 37272 ft 481 kts 122°
2026-04-25 12:38 -30.22818 125.40803 37274 ft 480 kts 122°
2026-04-25 12:38 -30.26127 125.47498 37279 ft 477 kts 122°
2026-04-25 12:39 -30.29257 125.53839 37278 ft 477 kts 122°
2026-04-25 12:39 -30.31997 125.59397 37277 ft 478 kts 122°
2026-04-25 12:40 -30.35282 125.66073 37280 ft 477 kts 122°
2026-04-25 12:40 -30.38563 125.72754 37281 ft 477 kts 122°
2026-04-25 12:41 -30.41842 125.79441 37282 ft 477 kts 122°
2026-04-25 12:41 -30.45111 125.86117 37287 ft 476 kts 122°
2026-04-25 12:42 -30.48368 125.92783 37293 ft 476 kts 122°
2026-04-25 12:42 -30.51632 125.99474 37290 ft 476 kts 122°
2026-04-25 12:43 -30.54896 126.06175 37288 ft 477 kts 122°
2026-04-25 12:43 -30.59778 126.16221 37301 ft 476 kts 122°
2026-04-25 12:44 -30.63037 126.22941 37301 ft 477 kts 122°
2026-04-25 12:45 -30.67912 126.33017 37300 ft 477 kts 122°
2026-04-25 12:45 -30.72782 126.43108 37303 ft 478 kts 122°
2026-04-25 12:46 -30.76006 126.49803 37301 ft 477 kts 122°
2026-04-25 12:46 -30.79242 126.56533 37305 ft 477 kts 122°
2026-04-25 12:47 -30.82477 126.63276 37308 ft 477 kts 122°
2026-04-25 12:47 -30.85723 126.70014 37307 ft 477 kts 122°
2026-04-25 12:48 -30.88961 126.76762 37306 ft 478 kts 122°
2026-04-25 12:48 -30.92179 126.83524 37308 ft 477 kts 122°
2026-04-25 12:49 -30.95387 126.90278 37310 ft 476 kts 122°
2026-04-25 12:49 -30.98584 126.97012 37310 ft 475 kts 122°
2026-04-25 12:50 -31.01739 127.03815 37309 ft 477 kts 120°
2026-04-25 12:50 -31.04272 127.09793 37311 ft 477 kts 118°
2026-04-25 12:51 -31.07174 127.16743 37301 ft 479 kts 118°
2026-04-25 12:51 -31.10134 127.23776 37308 ft 486 kts 118°
2026-04-25 12:52 -31.13124 127.30864 37299 ft 485 kts 119°
2026-04-25 12:52 -31.16103 127.37901 37297 ft 480 kts 119°
2026-04-25 12:53 -31.19075 127.44832 37291 ft 481 kts 119°
2026-04-25 12:53 -31.22042 127.51812 37283 ft 480 kts 118°
2026-04-25 12:54 -31.25010 127.58830 37232 ft 481 kts 118°
2026-04-25 12:54 -31.27957 127.65820 37224 ft 479 kts 118°
2026-04-25 12:55 -31.30426 127.71687 37212 ft 481 kts 118°
2026-04-25 12:55 -31.33882 127.79920 37214 ft 489 kts 118°
2026-04-25 12:56 -31.36883 127.87083 37211 ft 488 kts 118°
2026-04-25 12:56 -31.39849 127.94176 37202 ft 483 kts 118°
2026-04-25 12:57 -31.42792 128.01230 37213 ft 485 kts 118°
2026-04-25 12:57 -31.45774 128.08391 37221 ft 490 kts 118°
2026-04-25 12:58 -31.48714 128.15464 37247 ft 485 kts 119°
2026-04-25 12:58 -31.51664 128.22575 37291 ft 483 kts 120°
2026-04-25 12:59 -31.54576 128.29608 37316 ft 477 kts 120°
2026-04-25 12:59 -31.57483 128.36644 37290 ft 486 kts 119°
2026-04-25 13:00 -31.59973 128.42681 37287 ft 493 kts 119°
2026-04-25 13:00 -31.63421 128.51057 37382 ft 486 kts 120°
2026-04-25 13:01 -31.64888 128.54625 37793 ft 485 kts 121°
2026-04-25 13:01 -31.66349 128.58184 38432 ft 480 kts 121°
2026-04-25 13:01 -31.67787 128.61691 39001 ft 475 kts 121°
2026-04-25 13:01 -31.68834 128.64246 39259 ft 476 kts 121°
2026-04-25 13:02 -31.71706 128.71262 39311 ft 476 kts 121°
2026-04-25 13:02 -31.74565 128.78263 39311 ft 475 kts 121°
2026-04-25 13:03 -31.77419 128.85263 39311 ft 475 kts 121°
2026-04-25 13:03 -31.80270 128.92271 39311 ft 475 kts 121°
2026-04-25 13:04 -31.83119 128.99287 39310 ft 475 kts 121°
2026-04-25 13:04 -31.85940 129.06247 39309 ft 475 kts 121°
2026-04-25 13:05 -31.88777 129.13260 39309 ft 474 kts 121°
2026-04-25 13:05 -31.91605 129.20268 39307 ft 473 kts 121°
2026-04-25 13:06 -31.94416 129.27245 39307 ft 472 kts 121°
2026-04-25 13:06 -31.97237 129.34260 39308 ft 475 kts 121°
2026-04-25 13:07 -32.00056 129.41286 39301 ft 471 kts 121°
2026-04-25 13:07 -32.02851 129.48264 39299 ft 469 kts 121°
2026-04-25 13:08 -32.05624 129.55202 39298 ft 469 kts 121°
2026-04-25 13:08 -32.08408 129.62181 39298 ft 471 kts 121°
2026-04-25 13:09 -32.11176 129.69133 39294 ft 468 kts 121°
2026-04-25 13:09 -32.13940 129.76089 39294 ft 468 kts 121°
2026-04-25 13:10 -32.16703 129.83055 39294 ft 470 kts 121°
2026-04-25 13:10 -32.19473 129.90056 39291 ft 470 kts 121°
2026-04-25 13:11 -32.22236 129.97051 39290 ft 470 kts 121°
2026-04-25 13:11 -32.24979 130.04009 39290 ft 471 kts 121°
2026-04-25 13:12 -32.27735 130.11014 39289 ft 471 kts 121°
2026-04-25 13:12 -32.30031 130.16862 39288 ft 470 kts 121°
2026-04-25 13:13 -32.32702 130.23677 39288 ft 469 kts 121°
2026-04-25 13:13 -32.35431 130.30654 39287 ft 469 kts 121°
2026-04-25 13:14 -32.38160 130.37644 39283 ft 471 kts 121°
2026-04-25 13:14 -32.40925 130.44741 39283 ft 471 kts 121°
2026-04-25 13:15 -32.43661 130.51777 39283 ft 470 kts 121°
2026-04-25 13:15 -32.46391 130.58813 39280 ft 470 kts 122°
2026-04-25 13:16 -32.49106 130.65826 39280 ft 470 kts 122°
2026-04-25 13:16 -32.51825 130.72860 39279 ft 471 kts 121°
2026-04-25 13:17 -32.54559 130.79952 39278 ft 470 kts 122°
2026-04-25 13:17 -32.57255 130.86956 39278 ft 471 kts 122°
2026-04-25 13:18 -32.59971 130.94029 39277 ft 471 kts 122°
2026-04-25 13:18 -32.62685 131.01109 39278 ft 471 kts 122°
2026-04-25 13:19 -32.65390 131.08181 39276 ft 471 kts 122°
2026-04-25 13:19 -32.67198 131.12918 39276 ft 471 kts 122°
2026-04-25 13:20 -32.70797 131.22362 39275 ft 472 kts 122°
2026-04-25 13:20 -32.73508 131.29496 39273 ft 475 kts 122°
2026-04-25 13:21 -32.76221 131.36648 39272 ft 476 kts 122°
2026-04-25 13:21 -32.78935 131.43820 39273 ft 475 kts 122°
2026-04-25 13:22 -32.81632 131.50959 39270 ft 474 kts 122°
2026-04-25 13:23 -32.85667 131.61672 39269 ft 475 kts 122°
2026-04-25 13:23 -32.88380 131.68832 39266 ft 476 kts 122°
2026-04-25 13:24 -32.91095 131.76055 39262 ft 477 kts 121°
2026-04-25 13:24 -32.93768 131.83227 39260 ft 472 kts 121°
2026-04-25 13:25 -32.96158 131.89658 39261 ft 474 kts 121°
2026-04-25 13:25 -32.98830 131.96847 39263 ft 476 kts 121°
2026-04-25 13:26 -33.01479 132.04072 39260 ft 475 kts 120°
2026-04-25 13:26 -33.04055 132.11348 39260 ft 477 kts 120°
2026-04-25 13:27 -33.06628 132.18633 39259 ft 476 kts 120°
2026-04-25 13:27 -33.09190 132.25896 39259 ft 475 kts 120°
2026-04-25 13:28 -33.11747 132.33158 39260 ft 475 kts 120°
2026-04-25 13:28 -33.14321 132.40433 39260 ft 478 kts 121°
2026-04-25 13:29 -33.16494 132.46498 39259 ft 476 kts 121°
2026-04-25 13:29 -33.19067 132.53751 39259 ft 474 kts 121°
2026-04-25 13:30 -33.22934 132.64734 39261 ft 481 kts 120°
2026-04-25 13:31 -33.26798 132.75763 39258 ft 481 kts 120°
2026-04-25 13:31 -33.29368 132.83122 39258 ft 480 kts 120°
2026-04-25 13:32 -33.31929 132.90473 39255 ft 479 kts 120°
2026-04-25 13:32 -33.34508 132.97893 39257 ft 484 kts 120°
2026-04-25 13:33 -33.37077 133.05300 39258 ft 481 kts 120°
2026-04-25 13:33 -33.39632 133.12683 39258 ft 480 kts 120°
2026-04-25 13:34 -33.42191 133.20097 39253 ft 483 kts 119°
2026-04-25 13:34 -33.44750 133.27527 39254 ft 484 kts 119°
2026-04-25 13:35 -33.47312 133.34983 39254 ft 484 kts 119°
2026-04-25 13:35 -33.49870 133.42445 39252 ft 484 kts 119°
2026-04-25 13:36 -33.52175 133.49185 39253 ft 484 kts 119°
2026-04-25 13:36 -33.54778 133.56811 39253 ft 483 kts 119°
2026-04-25 13:37 -33.57319 133.64274 39245 ft 484 kts 118°
2026-04-25 13:37 -33.59863 133.71763 39238 ft 486 kts 118°
2026-04-25 13:38 -33.62411 133.79282 39239 ft 485 kts 118°
2026-04-25 13:38 -33.64941 133.86769 39236 ft 484 kts 118°
2026-04-25 13:39 -33.67469 133.94263 39235 ft 485 kts 118°
2026-04-25 13:39 -33.69997 134.01775 39237 ft 485 kts 117°
2026-04-25 13:40 -33.72518 134.09287 39235 ft 485 kts 117°
2026-04-25 13:40 -33.75036 134.16807 39233 ft 484 kts 117°
2026-04-25 13:41 -33.77531 134.24276 39232 ft 483 kts 117°
2026-04-25 13:41 -33.80036 134.31794 39222 ft 485 kts 116°
2026-04-25 13:42 -33.82566 134.39404 39231 ft 495 kts 116°
2026-04-25 13:42 -33.85104 134.47056 39235 ft 493 kts 117°
2026-04-25 13:43 -33.87625 134.54676 39227 ft 489 kts 116°
2026-04-25 13:43 -33.90151 134.62331 39230 ft 493 kts 116°
2026-04-25 13:44 -33.92661 134.69955 39230 ft 488 kts 116°
2026-04-25 13:44 -33.95173 134.77604 39224 ft 495 kts 112°
2026-04-25 13:45 -33.97726 134.85400 39229 ft 505 kts 113°
2026-04-25 13:45 -34.00314 134.93320 39229 ft 510 kts 112°
2026-04-25 13:46 -34.02915 135.01239 39224 ft 503 kts 111°
2026-04-25 13:46 -34.05490 135.09127 39225 ft 508 kts 112°
2026-04-25 13:47 -34.07885 135.16548 39226 ft 509 kts 111°
2026-04-25 13:47 -34.10259 135.23925 39227 ft 509 kts 111°
2026-04-25 13:48 -34.12809 135.31847 39176 ft 503 kts 112°
2026-04-25 13:48 -34.15179 135.39686 39184 ft 500 kts 108°
2026-04-25 13:49 -34.17274 135.47758 39180 ft 501 kts 109°
2026-04-25 13:49 -34.19339 135.55691 39150 ft 496 kts 108°
2026-04-25 13:50 -34.21441 135.63646 39168 ft 497 kts 107°
2026-04-25 13:50 -34.23568 135.71681 39167 ft 499 kts 109°
2026-04-25 13:51 -34.25695 135.79560 39143 ft 495 kts 109°
2026-04-25 13:51 -34.27823 135.87483 39176 ft 496 kts 109°
2026-04-25 13:52 -34.29915 135.95357 39107 ft 492 kts 108°
2026-04-25 13:52 -34.32000 136.03242 39092 ft 487 kts 108°
2026-04-25 13:53 -34.34057 136.11050 39123 ft 489 kts 108°
2026-04-25 13:53 -34.36135 136.18959 39124 ft 495 kts 108°
2026-04-25 13:54 -34.38209 136.26881 39114 ft 492 kts 108°
2026-04-25 13:54 -34.40266 136.34760 39130 ft 493 kts 108°
2026-04-25 13:55 -34.42348 136.42716 39134 ft 495 kts 108°
2026-04-25 13:55 -34.44440 136.50687 39140 ft 498 kts 108°
2026-04-25 13:56 -34.46507 136.58713 39148 ft 499 kts 106°
2026-04-25 13:56 -34.48565 136.66741 39170 ft 500 kts 105°
2026-04-25 13:57 -34.50636 136.74823 39178 ft 502 kts 105°
2026-04-25 13:57 -34.52689 136.82852 39187 ft 506 kts 106°
2026-04-25 13:58 -34.54770 136.91040 39191 ft 510 kts 107°
2026-04-25 13:58 -34.56848 136.99255 39194 ft 509 kts 106°
2026-04-25 13:59 -34.58920 137.07468 39194 ft 508 kts 106°
2026-04-25 13:59 -34.60986 137.15678 39206 ft 511 kts 106°
2026-04-25 14:00 -34.62615 137.22063 39211 ft 513 kts 105°
2026-04-25 14:00 -34.65104 137.31752 39213 ft 514 kts 108°
2026-04-25 14:01 -34.67192 137.40043 39207 ft 515 kts 108°
2026-04-25 14:01 -34.69263 137.48387 39207 ft 516 kts 108°
2026-04-25 14:02 -34.71333 137.56746 39206 ft 516 kts 108°
2026-04-25 14:02 -34.73400 137.65096 39201 ft 517 kts 108°
2026-04-25 14:03 -34.75469 137.73482 39200 ft 518 kts 108°
2026-04-25 14:03 -34.77515 137.81823 39200 ft 518 kts 105°
2026-04-25 14:04 -34.79542 137.90122 39176 ft 514 kts 105°
2026-04-25 14:04 -34.81602 137.98577 39172 ft 511 kts 103°
2026-04-25 14:05 -34.83598 138.06756 39176 ft 504 kts 102°
2026-04-25 14:05 -34.85612 138.14868 39165 ft 496 kts 102°
2026-04-25 14:06 -34.87602 138.22899 39155 ft 497 kts 103°
2026-04-25 14:06 -34.88899 138.28268 39150 ft 501 kts 103°
2026-04-25 14:07 -34.90847 138.36391 39147 ft 504 kts 103°
2026-04-25 14:07 -34.92794 138.44530 39128 ft 500 kts 103°
2026-04-25 14:08 -34.94724 138.52591 39120 ft 494 kts 103°
2026-04-25 14:08 -34.96968 138.60486 39121 ft 491 kts 108°
2026-04-25 14:09 -34.99451 138.68318 39127 ft 494 kts 108°
2026-04-25 14:09 -35.01865 138.76176 39145 ft 501 kts 107°
2026-04-25 14:10 -35.04314 138.84279 39170 ft 510 kts 107°
2026-04-25 14:10 -35.06421 138.91287 39165 ft 508 kts 106°
2026-04-25 14:11 -35.08866 138.99281 39154 ft 505 kts 107°
2026-04-25 14:11 -35.11308 139.07363 39175 ft 510 kts 107°
2026-04-25 14:12 -35.13759 139.15511 39181 ft 508 kts 106°
2026-04-25 14:12 -35.16189 139.23560 39171 ft 505 kts 111°
2026-04-25 14:13 -35.18612 139.31728 39187 ft 517 kts 111°
2026-04-25 14:13 -35.21071 139.40055 39182 ft 522 kts 109°
2026-04-25 14:14 -35.23542 139.48427 39184 ft 522 kts 110°
2026-04-25 14:14 -35.26206 139.56680 39186 ft 521 kts 115°
2026-04-25 14:15 -35.29271 139.64710 39182 ft 521 kts 114°
2026-04-25 14:15 -35.32307 139.72689 39183 ft 521 kts 116°
2026-04-25 14:16 -35.35309 139.80769 39184 ft 520 kts 116°
2026-04-25 14:16 -35.37802 139.87533 39184 ft 519 kts 116°
2026-04-25 14:17 -35.40820 139.95624 39186 ft 520 kts 116°
2026-04-25 14:17 -35.43821 140.03700 39185 ft 519 kts 116°
2026-04-25 14:18 -35.46794 140.11774 39184 ft 520 kts 116°
2026-04-25 14:18 -35.49750 140.19840 39187 ft 520 kts 116°
2026-04-25 14:19 -35.52710 140.27942 39190 ft 517 kts 115°
2026-04-25 14:19 -35.55642 140.35988 39191 ft 517 kts 115°
2026-04-25 14:20 -35.58585 140.44087 39196 ft 517 kts 115°
2026-04-25 14:20 -35.61512 140.52162 39194 ft 517 kts 115°
2026-04-25 14:21 -35.64423 140.60215 39195 ft 518 kts 115°
2026-04-25 14:21 -35.67347 140.68324 39197 ft 517 kts 115°
2026-04-25 14:22 -35.70261 140.76426 39198 ft 515 kts 115°
2026-04-25 14:22 -35.73156 140.84498 39199 ft 515 kts 115°
2026-04-25 14:23 -35.75624 140.91393 39199 ft 515 kts 115°
2026-04-25 14:23 -35.78504 140.99461 39199 ft 515 kts 115°
2026-04-25 14:24 -35.81381 141.07541 39199 ft 515 kts 115°
2026-04-25 14:24 -35.84232 141.15568 39200 ft 515 kts 115°
2026-04-25 14:25 -35.87115 141.23707 39201 ft 514 kts 115°
2026-04-25 14:25 -35.89952 141.31737 39201 ft 513 kts 115°
2026-04-25 14:26 -35.92796 141.39810 39204 ft 513 kts 115°
2026-04-25 14:26 -35.95628 141.47866 39203 ft 513 kts 115°
2026-04-25 14:27 -35.98469 141.55972 39203 ft 513 kts 115°
2026-04-25 14:27 -36.01275 141.63999 39207 ft 511 kts 115°
2026-04-25 14:28 -36.04106 141.72113 39208 ft 511 kts 115°
2026-04-25 14:28 -36.06937 141.80155 39209 ft 510 kts 115°
2026-04-25 14:29 -36.09702 141.88152 39209 ft 509 kts 114°
2026-04-25 14:29 -36.12476 141.96210 39210 ft 509 kts 114°
2026-04-25 14:30 -36.15249 142.04275 39210 ft 509 kts 115°
2026-04-25 14:30 -36.19384 142.16353 39211 ft 508 kts 114°
2026-04-25 14:31 -36.22124 142.24411 39214 ft 508 kts 114°
2026-04-25 14:31 -36.24851 142.32454 39224 ft 503 kts 114°
2026-04-25 14:32 -36.27550 142.40436 39225 ft 502 kts 114°
2026-04-25 14:32 -36.30247 142.48415 39227 ft 503 kts 114°
2026-04-25 14:33 -36.31638 142.52413 39026 ft 503 kts 115°
2026-04-25 14:33 -36.33021 142.56403 38288 ft 505 kts 114°
2026-04-25 14:33 -36.34383 142.60417 37691 ft 504 kts 114°
2026-04-25 14:33 -36.35721 142.64401 37259 ft 499 kts 114°
2026-04-25 14:34 -36.37049 142.68371 36812 ft 496 kts 114°
2026-04-25 14:34 -36.38366 142.72315 36342 ft 493 kts 114°
2026-04-25 14:34 -36.39676 142.76239 35896 ft 490 kts 114°
2026-04-25 14:34 -36.40974 142.80127 35456 ft 488 kts 114°
2026-04-25 14:35 -36.42268 142.84003 35019 ft 485 kts 114°
2026-04-25 14:35 -36.43559 142.87877 34585 ft 482 kts 114°
2026-04-25 14:35 -36.44837 142.91700 34164 ft 480 kts 114°
2026-04-25 14:35 -36.46115 142.95530 33750 ft 477 kts 114°
2026-04-25 14:36 -36.47363 142.99284 33349 ft 473 kts 114°
2026-04-25 14:36 -36.48609 143.03039 32946 ft 470 kts 114°
2026-04-25 14:36 -36.49850 143.06786 32542 ft 467 kts 114°
2026-04-25 14:36 -36.51085 143.10522 32140 ft 464 kts 114°
2026-04-25 14:37 -36.52303 143.14211 31740 ft 459 kts 113°
2026-04-25 14:37 -36.53504 143.17852 31346 ft 450 kts 113°
2026-04-25 14:37 -36.54684 143.21433 30969 ft 444 kts 113°
2026-04-25 14:37 -36.55847 143.24969 30606 ft 441 kts 113°
2026-04-25 14:38 -36.57012 143.28468 30255 ft 437 kts 114°
2026-04-25 14:38 -36.58186 143.31953 29882 ft 434 kts 114°
2026-04-25 14:38 -36.59340 143.35403 29492 ft 431 kts 113°
2026-04-25 14:38 -36.60306 143.38310 29161 ft 428 kts 113°
2026-04-25 14:39 -36.61400 143.41616 28782 ft 425 kts 113°
2026-04-25 14:39 -36.62522 143.45016 28393 ft 422 kts 113°
2026-04-25 14:39 -36.63628 143.48376 28010 ft 419 kts 113°
2026-04-25 14:39 -36.64726 143.51720 27621 ft 416 kts 113°
2026-04-25 14:40 -36.65819 143.55052 27224 ft 413 kts 112°
2026-04-25 14:40 -36.66899 143.58352 26824 ft 411 kts 112°
2026-04-25 14:40 -36.67975 143.61640 26424 ft 409 kts 112°
2026-04-25 14:40 -36.69044 143.64912 26025 ft 406 kts 112°
2026-04-25 14:41 -36.70106 143.68166 25626 ft 404 kts 112°
2026-04-25 14:41 -36.71162 143.71407 25229 ft 401 kts 112°
2026-04-25 14:41 -36.72200 143.74595 24840 ft 393 kts 112°
2026-04-25 14:41 -36.73213 143.77707 24459 ft 385 kts 112°
2026-04-25 14:42 -36.74204 143.80759 24084 ft 383 kts 112°
2026-04-25 14:42 -36.74537 143.81785 23957 ft 382 kts 112°
2026-04-25 14:42 -36.76188 143.86875 23323 ft 380 kts 111°
2026-04-25 14:42 -36.77189 143.89967 22938 ft 378 kts 111°
2026-04-25 14:43 -36.78171 143.93001 22565 ft 376 kts 111°
2026-04-25 14:43 -36.79137 143.95989 22198 ft 374 kts 111°
2026-04-25 14:43 -36.80117 143.99027 21820 ft 372 kts 110°
2026-04-25 14:43 -36.81077 144.01985 21450 ft 371 kts 111°
2026-04-25 14:44 -36.82055 144.04955 21075 ft 369 kts 111°
2026-04-25 14:44 -36.83016 144.07914 20700 ft 367 kts 110°
2026-04-25 14:44 -36.83962 144.10851 20330 ft 365 kts 110°
2026-04-25 14:44 -36.84905 144.13795 19957 ft 363 kts 110°
2026-04-25 14:45 -36.85525 144.15736 19709 ft 362 kts 110°
2026-04-25 14:45 -36.86766 144.19627 19209 ft 360 kts 110°
2026-04-25 14:45 -36.87689 144.22526 18834 ft 358 kts 110°
2026-04-25 14:45 -36.88606 144.25408 18460 ft 356 kts 109°
2026-04-25 14:46 -36.90317 144.30790 17762 ft 353 kts 109°
2026-04-25 14:46 -36.91224 144.33639 17393 ft 351 kts 109°
2026-04-25 14:46 -36.92181 144.36429 17024 ft 350 kts 114°
2026-04-25 14:47 -36.93424 144.39050 16661 ft 346 kts 122°
2026-04-25 14:47 -36.94372 144.40698 16430 ft 345 kts 125°
2026-04-25 14:47 -36.96356 144.43777 15958 ft 343 kts 129°
2026-04-25 14:47 -36.97927 144.46011 15602 ft 342 kts 130°
2026-04-25 14:48 -36.99501 144.48222 15250 ft 340 kts 130°
2026-04-25 14:48 -37.01070 144.50449 14902 ft 339 kts 130°
2026-04-25 14:48 -37.02613 144.52661 14560 ft 337 kts 130°
2026-04-25 14:48 -37.04150 144.54875 14221 ft 336 kts 129°
2026-04-25 14:49 -37.05679 144.57083 13891 ft 334 kts 129°
2026-04-25 14:49 -37.07195 144.59277 13568 ft 332 kts 129°
2026-04-25 14:49 -37.08703 144.61461 13253 ft 330 kts 129°
2026-04-25 14:49 -37.10197 144.63625 12928 ft 325 kts 129°
2026-04-25 14:50 -37.11671 144.65761 12589 ft 323 kts 129°
2026-04-25 14:50 -37.13139 144.67889 12248 ft 322 kts 129°
2026-04-25 14:50 -37.14605 144.70010 11907 ft 321 kts 129°
2026-04-25 14:50 -37.16242 144.71896 11558 ft 321 kts 143°
2026-04-25 14:51 -37.18216 144.73189 11213 ft 320 kts 158°
2026-04-25 14:51 -37.20338 144.74095 10621 ft 327 kts 165°
2026-04-25 14:51 -37.22485 144.74789 10231 ft 312 kts 169°
2026-04-25 14:51 -37.24556 144.75309 10094 ft 291 kts 171°
2026-04-25 14:52 -37.26507 144.75774 10012 ft 282 kts 171°
2026-04-25 14:52 -37.28443 144.76267 9702 ft 289 kts 169°
2026-04-25 14:52 -37.30377 144.76775 9415 ft 282 kts 168°
2026-04-25 14:52 -37.31654 144.77113 9064 ft 276 kts 168°
2026-04-25 14:53 -37.34096 144.77742 8433 ft 269 kts 170°
2026-04-25 14:53 -37.35946 144.78101 8227 ft 266 kts 173°
2026-04-25 14:53 -37.37741 144.78379 8240 ft 256 kts 174°
2026-04-25 14:53 -37.39491 144.78651 8208 ft 249 kts 174°
2026-04-25 14:54 -37.41173 144.78935 7986 ft 238 kts 173°
2026-04-25 14:54 -37.41730 144.79032 7927 ft 236 kts 173°
2026-04-25 14:54 -37.42692 144.79200 7807 ft 234 kts 173°
2026-04-25 14:54 -37.44301 144.79483 7604 ft 234 kts 173°
2026-04-25 14:55 -37.44841 144.79578 7531 ft 234 kts 172°
2026-04-25 14:55 -37.46049 144.79792 7363 ft 231 kts 172°
2026-04-25 14:55 -37.47628 144.80098 7241 ft 229 kts 171°
2026-04-25 14:55 -37.49215 144.80452 6944 ft 232 kts 169°
2026-04-25 14:56 -37.50785 144.80809 6738 ft 227 kts 170°
2026-04-25 14:56 -37.52326 144.81152 6539 ft 222 kts 170°
2026-04-25 14:56 -37.53837 144.81485 6348 ft 217 kts 170°
2026-04-25 14:56 -37.55236 144.82062 6106 ft 210 kts 152°
2026-04-25 14:57 -37.56167 144.83398 5942 ft 202 kts 120°
2026-04-25 14:57 -37.56565 144.85054 5859 ft 200 kts 99°
2026-04-25 14:57 -37.56673 144.86771 5695 ft 194 kts 91°
2026-04-25 14:57 -37.56712 144.88470 5441 ft 192 kts 88°
2026-04-25 14:58 -37.56708 144.90114 5267 ft 182 kts 86°
2026-04-25 14:58 -37.56684 144.91662 5104 ft 174 kts 86°
2026-04-25 14:58 -37.56721 144.93169 4948 ft 170 kts 89°
2026-04-25 14:58 -37.56810 144.94660 4811 ft 171 kts 91°
2026-04-25 14:59 -37.56913 144.96155 4667 ft 171 kts 91°
2026-04-25 14:59 -37.57007 144.97643 4403 ft 170 kts 90°
2026-04-25 14:59 -37.57091 144.99132 4120 ft 170 kts 90°
2026-04-25 14:59 -37.57174 145.00614 3839 ft 169 kts 90°
2026-04-25 15:00 -37.57305 145.01589 3614 ft 173 kts 99°
2026-04-25 15:00 -37.58426 145.03107 3060 ft 186 kts 147°
2026-04-25 15:00 -37.59630 145.03465 2973 ft 175 kts 170°
2026-04-25 15:00 -37.60851 145.03440 2874 ft 173 kts 182°
2026-04-25 15:01 -37.62067 145.03257 2680 ft 176 kts 187°
2026-04-25 15:01 -37.63264 145.03083 2590 ft 173 kts 186°
2026-04-25 15:01 -37.64456 145.02944 2559 ft 170 kts 185°
2026-04-25 15:01 -37.65595 145.02632 2379 ft 170 kts 200°
2026-04-25 15:02 -37.66423 145.01632 2359 ft 164 kts 233°
2026-04-25 15:02 -37.66882 145.00331 2401 ft 162 kts 252°
2026-04-25 15:02 -37.67101 144.98948 2354 ft 159 kts 263°
2026-04-25 15:02 -37.67170 144.97580 2315 ft 157 kts 270°
2026-04-25 15:03 -37.67119 144.96204 2320 ft 154 kts 276°
2026-04-25 15:03 -37.66972 144.94876 2306 ft 153 kts 281°
2026-04-25 15:03 -37.66834 144.93564 2182 ft 151 kts 275°
2026-04-25 15:03 -37.66762 144.92219 1837 ft 152 kts 276°
2026-04-25 15:04 -37.66660 144.90889 1581 ft 151 kts 277°
2026-04-25 15:04 -37.66533 144.89586 1317 ft 150 kts 275°
2026-04-25 15:04 -37.66444 144.88297 972 ft 148 kts 276°
2026-04-25 15:04 -37.66375 144.87008 864 ft 144 kts 274°
2026-04-25 15:05 -37.66295 144.85758 656 ft 146 kts 275°
2026-04-25 15:05 -37.66218 144.84490 490 ft 138 kts 274°
2026-04-25 15:05 -37.66142 144.83439 448 ft 98 kts 277°
2026-04-25 15:06 -37.66093 144.82543 448 ft 30 kts 269°
2026-04-25 15:06 -37.66086 144.82362 448 ft 14 kts 271°
2026-04-25 15:06 -37.66110 144.82269 448 ft 10 kts 234°
2026-04-25 15:06 -37.66167 144.82222 448 ft 10 kts 194°
2026-04-25 15:07 -37.66232 144.82211 448 ft 9 kts 186°
2026-04-25 15:07 -37.66295 144.82208 448 ft 9 kts 168°
2026-04-25 15:07 -37.66349 144.82240 448 ft 8 kts 140°
2026-04-25 15:07 -37.66381 144.82296 448 ft 8 kts 111°
2026-04-25 15:08 -37.66395 144.82362 448 ft 7 kts 101°
2026-04-25 15:08 -37.66404 144.82423 448 ft 7 kts 101°
2026-04-25 15:08 -37.66413 144.82481 448 ft 6 kts 100°
2026-04-25 15:08 -37.66423 144.82550 448 ft 12 kts 100°
2026-04-25 15:09 -37.66436 144.82651 448 ft 11 kts 96°
2026-04-25 15:09 -37.66442 144.82747 448 ft 11 kts 94°
2026-04-25 15:09 -37.66455 144.82955 448 ft 13 kts 94°
2026-04-25 15:10 -37.66461 144.83062 448 ft 12 kts 94°
2026-04-25 15:10 -37.66466 144.83162 448 ft 11 kts 94°
2026-04-25 15:10 -37.66478 144.83363 448 ft 12 kts 94°
2026-04-25 15:11 -37.66484 144.83461 448 ft 11 kts 94°
2026-04-25 15:11 -37.66489 144.83553 448 ft 10 kts 95°
2026-04-25 15:11 -37.66495 144.83639 448 ft 10 kts 95°
2026-04-25 15:12 -37.66502 144.83786 448 ft 9 kts 95°
2026-04-25 15:12 -37.66507 144.83859 448 ft 8 kts 95°
2026-04-25 15:12 -37.66511 144.83927 448 ft 8 kts 95°
2026-04-25 15:12 -37.66513 144.83950 448 ft 7 kts 95°
2026-04-25 15:13 -37.66524 144.84066 448 ft 9 kts 114°
2026-04-25 15:13 -37.66610 144.84159 448 ft 8 kts 168°
2026-04-25 15:13 -37.66663 144.84172 448 ft 7 kts 155°
2026-04-25 15:14 -37.66694 144.84218 448 ft 7 kts 107°
2026-04-25 15:14 -37.66693 144.84278 448 ft 7 kts 82°
2026-04-25 15:14 -37.66687 144.84332 448 ft 6 kts 82°
2026-04-25 15:14 -37.66681 144.84383 448 ft 6 kts 82°
2026-04-25 15:15 -37.66675 144.84431 448 ft 5 kts 81°
2026-04-25 15:15 -37.66670 144.84476 448 ft 5 kts 81°
2026-04-25 15:15 -37.66669 144.84517 448 ft 5 kts 112°
2026-04-25 15:15 -37.66693 144.84535 448 ft 3 kts 169°
2026-04-25 15:16 -37.66706 144.84537 448 ft 3 kts 173°
2026-04-25 15:16 -37.66724 144.84540 448 ft 2 kts 172°
2026-04-25 15:16 -37.66753 144.84545 448 ft 2 kts 172°
2026-04-25 15:17 -37.66762 144.84547 448 ft 0 kts 172°